M I D A S
Marine Information and Data Acquisition System
Tripno 1869 of the Zeeleeuw from 2010-04-27 06:24:28 to 2010-04-27 13:59:42
Back to CruiseResearch ActivitiesStationsMapUnderway DataData graphs

EquipmentUnitsComment
TimeDGPSUTC
LatitudeDGPSDM.mWGS84
LongitudeDGPSDM.mWGS84
TemperatureSBE03/SBE38deg celciusITS90
ConductivitySBE21S/mITS90
SalinitySBE21 Practical Salinity Units
ChlorophylAChelsea fluorimeterg/lCalibrated in Aceton
Missing or incorrect values are displayed as -999
Sea surface data collected by the RV Zeeleeuw from 2010-04-27 05:51:42 to 2010-04-27 14:10:25
                                                                                    Next 1000 lines
Time Latitude Longitude Temperature Conductivity Salinity ChlorophylA
2010-04-27 05:51:52 51°13.663 2°55.961 18.4047 0.078376 0.436054 -1.000568
2010-04-27 05:51:57 51°13.663 2°55.961 18.3959 0.078376 0.436054 -1.000568
2010-04-27 05:52:03 51°13.663 2°55.961 18.4039 0.078376 0.436054 -1.000568
2010-04-27 05:52:08 51°13.662 2°55.961 18.3817 0.078376 0.436054 -1.000568
2010-04-27 05:52:12 51°13.662 2°55.96 18.3807 0.078376 0.436054 -1.000568
2010-04-27 05:52:17 51°13.662 2°55.96 18.3831 0.078376 0.436062 -1.000568
2010-04-27 05:52:23 51°13.662 2°55.96 18.388 0.078376 0.436069 -1.035392
2010-04-27 05:52:28 51°13.662 2°55.96 18.3897 0.078376 0.436069 -1.035392
2010-04-27 05:52:33 51°13.662 2°55.96 18.3933 0.078376 0.436069 -1.000568
2010-04-27 05:52:37 51°13.662 2°55.96 18.3924 0.078376 0.436062 -0.965744
2010-04-27 05:52:42 51°13.662 2°55.96 18.3913 0.078376 0.436062 -0.965744
2010-04-27 05:52:47 51°13.662 2°55.96 18.3912 0.078376 0.436069 -1.000568
2010-04-27 05:52:52 51°13.662 2°55.96 18.3933 0.078376 0.436069 -1.035392
2010-04-27 05:52:57 51°13.662 2°55.96 18.3909 0.078376 0.436083 -0.965744
2010-04-27 05:53:02 51°13.662 2°55.96 18.3897 0.078376 0.436076 -1.035392
2010-04-27 05:53:07 51°13.662 2°55.96 18.39 0.078376 0.436076 -1.035392
2010-04-27 05:53:12 51°13.662 2°55.96 18.3903 0.078376 0.436083 -1.035392
2010-04-27 05:53:17 51°13.662 2°55.961 18.3931 0.078376 0.43609 -1.035392
2010-04-27 05:53:22 51°13.662 2°55.961 18.3891 0.078376 0.436083 -1.035392
2010-04-27 05:53:27 51°13.662 2°55.961 18.3871 0.078376 0.43609 -1.000568
2010-04-27 05:53:32 51°13.662 2°55.961 18.3872 0.078376 0.43609 -1.000568
2010-04-27 05:53:38 51°13.662 2°55.961 18.3873 0.078376 0.43609 -1.000568
2010-04-27 05:53:42 51°13.662 2°55.96 18.3886 0.078376 0.43609 -1.000568
2010-04-27 05:53:47 51°13.662 2°55.96 18.3852 0.078376 0.43609 -1.000568
2010-04-27 05:53:52 51°13.662 2°55.96 18.3869 0.078376 0.436097 -1.000568
2010-04-27 05:53:58 51°13.662 2°55.96 18.3863 0.078376 0.436097 -1.000568
2010-04-27 05:54:02 51°13.662 2°55.96 18.3882 0.078376 0.436105 -1.000568
2010-04-27 05:54:07 51°13.662 2°55.96 18.3891 0.078376 0.436105 -1.000568
2010-04-27 05:54:12 51°13.662 2°55.96 18.3936 0.078376 0.436105 -1.000568
2010-04-27 05:54:17 51°13.662 2°55.96 18.3948 0.078376 0.436112 -1.000568
2010-04-27 05:54:22 51°13.662 2°55.96 18.3951 0.078376 0.436112 -1.000568
2010-04-27 05:54:27 51°13.662 2°55.96 18.3949 0.078376 0.436112 -1.000568
2010-04-27 05:54:33 51°13.662 2°55.96 18.3942 0.078376 0.436119 -1.000568
2010-04-27 05:54:37 51°13.662 2°55.96 18.3854 0.078376 0.436119 -1.000568
2010-04-27 05:54:43 51°13.662 2°55.96 18.3856 0.078376 0.436119 -1.000568
2010-04-27 05:54:48 51°13.662 2°55.96 18.3801 0.078376 0.436119 -1.000568
2010-04-27 05:54:53 51°13.662 2°55.96 18.3825 0.078376 0.436119 -1.000568
2010-04-27 05:54:57 51°13.662 2°55.96 18.3794 0.078376 0.436126 -0.965744
2010-04-27 05:55:03 51°13.662 2°55.96 18.3833 0.078376 0.436126 -1.070216
2010-04-27 05:55:08 51°13.662 2°55.96 18.3799 0.078376 0.436126 -1.000568
2010-04-27 05:55:13 51°13.662 2°55.96 18.3855 0.078376 0.436126 -1.000568
2010-04-27 05:55:17 51°13.662 2°55.96 18.3872 0.078376 0.436126 -1.035392
2010-04-27 05:55:22 51°13.662 2°55.96 18.389 0.078376 0.436133 -1.035392
2010-04-27 05:55:27 51°13.662 2°55.96 18.387 0.078376 0.436133 -1.035392
2010-04-27 05:55:32 51°13.662 2°55.96 18.3881 0.078376 0.436133 -1.000568
2010-04-27 05:55:37 51°13.662 2°55.96 18.3876 0.078376 0.436141 -1.000568
2010-04-27 05:55:42 51°13.662 2°55.96 18.3896 0.078376 0.436141 -1.000568
2010-04-27 05:55:47 51°13.662 2°55.96 18.3918 0.078376 0.436141 -1.000568
2010-04-27 05:55:52 51°13.662 2°55.96 18.3906 0.078376 0.436148 -1.000568
2010-04-27 05:55:58 51°13.662 2°55.96 18.3923 0.078376 0.436141 -1.035392
2010-04-27 05:56:02 51°13.662 2°55.96 18.3934 0.078376 0.436148 -1.035392
2010-04-27 05:56:07 51°13.662 2°55.96 18.3952 0.078376 0.436148 -1.000568
2010-04-27 05:56:12 51°13.662 2°55.96 18.3962 0.078376 0.436148 -1.000568
2010-04-27 05:56:18 51°13.662 2°55.96 18.3929 0.078376 0.436155 -1.000568
2010-04-27 05:56:22 51°13.663 2°55.96 18.3803 0.078376 0.436155 -1.000568
2010-04-27 05:56:27 51°13.663 2°55.96 18.3841 0.078376 0.436155 -1.000568
2010-04-27 05:56:32 51°13.663 2°55.96 18.3739 0.078376 0.436155 -1.000568
2010-04-27 05:56:37 51°13.662 2°55.96 18.3629 0.078376 0.436155 -1.000568
2010-04-27 05:56:42 51°13.663 2°55.96 18.3646 0.078376 0.436169 -1.035392
2010-04-27 05:56:47 51°13.663 2°55.96 18.368 0.078376 0.436162 -1.000568
2010-04-27 05:56:52 51°13.662 2°55.96 18.359 0.078376 0.436169 -0.965744
2010-04-27 05:56:57 51°13.663 2°55.96 18.3576 0.078376 0.436169 -1.000568
2010-04-27 05:57:02 51°13.662 2°55.96 18.3594 0.078376 0.436169 -1.000568
2010-04-27 05:57:07 51°13.662 2°55.959 18.37 0.078376 0.436176 -1.035392
2010-04-27 05:57:12 51°13.663 2°55.959 18.3751 0.078376 0.436176 -1.035392
2010-04-27 05:57:17 51°13.663 2°55.959 18.3813 0.078376 0.436184 -1.000568
2010-04-27 05:57:23 51°13.663 2°55.959 18.3841 0.078376 0.436176 -1.000568
2010-04-27 05:57:27 51°13.663 2°55.959 18.3818 0.078376 0.436184 -1.000568
2010-04-27 05:57:33 51°13.663 2°55.959 18.3784 0.078376 0.436184 -1.000568
2010-04-27 05:57:37 51°13.663 2°55.959 18.3812 0.078376 0.436184 -0.965744
2010-04-27 05:57:42 51°13.663 2°55.959 18.3838 0.078376 0.436184 -0.965744
2010-04-27 05:57:48 51°13.663 2°55.959 18.3855 0.078376 0.436198 -1.000568
2010-04-27 05:57:53 51°13.663 2°55.959 18.3868 0.078376 0.436184 -1.035392
2010-04-27 05:57:57 51°13.663 2°55.959 18.3923 0.078376 0.436184 -1.000568
2010-04-27 05:58:03 51°13.663 2°55.959 18.3962 0.078376 0.436198 -1.035392
2010-04-27 05:58:07 51°13.663 2°55.959 18.397 0.078376 0.436198 -1.035392
2010-04-27 05:58:13 51°13.663 2°55.959 18.399 0.078376 0.436198 -1.035392
2010-04-27 05:58:17 51°13.663 2°55.959 18.4007 0.078376 0.436198 -0.965744
2010-04-27 05:58:22 51°13.663 2°55.959 18.4019 0.078376 0.436198 -0.965744
2010-04-27 05:58:27 51°13.662 2°55.959 18.4041 0.078376 0.436205 -1.000568
2010-04-27 05:58:32 51°13.663 2°55.959 18.4041 0.078376 0.436205 -1.000568
2010-04-27 05:58:38 51°13.662 2°55.959 18.4035 0.078376 0.436212 -1.035392
2010-04-27 05:58:42 51°13.663 2°55.959 18.4023 0.078376 0.436212 -1.035392
2010-04-27 05:58:47 51°13.663 2°55.959 18.4026 0.078376 0.436212 -1.000568
2010-04-27 05:58:52 51°13.663 2°55.959 18.4023 0.078376 0.436212 -0.965744
2010-04-27 05:58:58 51°13.663 2°55.959 18.4039 0.078376 0.43622 -1.035392
2010-04-27 05:59:02 51°13.663 2°55.959 18.4062 0.078376 0.43622 -1.000568
2010-04-27 05:59:07 51°13.663 2°55.96 18.4071 0.078376 0.43622 -1.035392
2010-04-27 05:59:12 51°13.663 2°55.96 18.4069 0.078376 0.43622 -1.035392
2010-04-27 05:59:18 51°13.663 2°55.96 18.4075 0.078376 0.43622 -1.035392
2010-04-27 05:59:22 51°13.663 2°55.96 18.4063 0.078376 0.43622 -1.000568
2010-04-27 05:59:27 51°13.663 2°55.96 18.406 0.078376 0.436227 -1.035392
2010-04-27 05:59:32 51°13.663 2°55.96 18.4027 0.078376 0.436234 -1.000568
2010-04-27 05:59:37 51°13.663 2°55.96 18.4037 0.078376 0.436234 -1.000568
2010-04-27 05:59:42 51°13.663 2°55.96 18.407 0.078376 0.436234 -1.000568
2010-04-27 05:59:47 51°13.663 2°55.96 18.4062 0.078376 0.436234 -1.000568
2010-04-27 05:59:52 51°13.663 2°55.96 18.406 0.078376 0.436234 -1.000568
2010-04-27 05:59:57 51°13.663 2°55.96 18.4067 0.078376 0.436234 -1.000568
2010-04-27 06:00:03 51°13.663 2°55.96 18.4074 0.078376 0.436241 -1.035392
2010-04-27 06:00:08 51°13.663 2°55.96 18.4076 0.078376 0.436241 -1.000568
2010-04-27 06:00:13 51°13.663 2°55.96 18.4091 0.078376 0.436241 -1.000568
2010-04-27 06:00:17 51°13.663 2°55.96 18.4111 0.078376 0.436241 -1.000568
2010-04-27 06:00:23 51°13.663 2°55.96 18.4124 0.078376 0.436241 -1.000568
2010-04-27 06:00:28 51°13.663 2°55.96 18.4147 0.078376 0.436248 -1.000568
2010-04-27 06:00:33 51°13.663 2°55.96 18.4154 0.078376 0.436248 -1.035392
2010-04-27 06:00:37 51°13.663 2°55.96 18.4154 0.078376 0.436256 -1.000568
2010-04-27 06:00:43 51°13.663 2°55.96 18.4147 0.078376 0.436256 -1.000568
2010-04-27 06:00:48 51°13.663 2°55.96 18.415 0.078376 0.436248 -1.000568
2010-04-27 06:00:52 51°13.663 2°55.96 18.4165 0.078376 0.436263 -1.035392
2010-04-27 06:00:57 51°13.663 2°55.96 18.4175 0.078376 0.436256 -1.000568
2010-04-27 06:01:02 51°13.663 2°55.96 18.416 0.078376 0.436263 -1.000568
2010-04-27 06:01:07 51°13.663 2°55.96 18.4159 0.078376 0.436256 -1.000568
2010-04-27 06:01:13 51°13.663 2°55.96 18.4164 0.078376 0.436256 -1.000568
2010-04-27 06:01:18 51°13.663 2°55.96 18.4179 0.078376 0.436263 -1.000568
2010-04-27 06:01:22 51°13.663 2°55.96 18.4177 0.078376 0.436263 -1.035392
2010-04-27 06:01:27 51°13.663 2°55.96 18.4198 0.078376 0.43627 -1.000568
2010-04-27 06:01:32 51°13.663 2°55.96 18.4209 0.078376 0.43627 -1.000568
2010-04-27 06:01:38 51°13.663 2°55.96 18.4217 0.078376 0.43627 -1.000568
2010-04-27 06:01:42 51°13.663 2°55.961 18.4228 0.078376 0.43627 -1.000568
2010-04-27 06:01:47 51°13.663 2°55.961 18.4214 0.078376 0.436277 -1.035392
2010-04-27 06:01:52 51°13.663 2°55.961 18.4226 0.078376 0.436277 -1.000568
2010-04-27 06:01:58 51°13.663 2°55.96 18.4245 0.078376 0.436277 -1.035392
2010-04-27 06:02:02 51°13.663 2°55.96 18.4255 0.078376 0.436284 -1.000568
2010-04-27 06:02:07 51°13.663 2°55.96 18.427 0.078376 0.436284 -1.000568
2010-04-27 06:02:12 51°13.663 2°55.96 18.4284 0.078376 0.436284 -1.000568
2010-04-27 06:02:17 51°13.663 2°55.96 18.4274 0.078376 0.436291 -1.000568
2010-04-27 06:02:22 51°13.663 2°55.96 18.4305 0.078376 0.436291 -1.000568
2010-04-27 06:02:27 51°13.663 2°55.96 18.4219 0.078376 0.436291 -1.000568
2010-04-27 06:02:32 51°13.663 2°55.96 18.4235 0.078376 0.436291 -1.000568
2010-04-27 06:02:37 51°13.663 2°55.96 18.421 0.078376 0.436299 -1.035392
2010-04-27 06:02:43 51°13.663 2°55.96 18.4252 0.078376 0.436299 -1.035392
2010-04-27 06:02:48 51°13.663 2°55.96 18.4233 0.078376 0.436291 -1.000568
2010-04-27 06:02:52 51°13.663 2°55.96 18.4261 0.078376 0.436299 -1.000568
2010-04-27 06:02:57 51°13.663 2°55.96 18.4264 0.078376 0.436306 -1.000568
2010-04-27 06:03:02 51°13.663 2°55.96 18.4216 0.078376 0.436306 -1.000568
2010-04-27 06:03:08 51°13.663 2°55.96 18.4271 0.078376 0.436306 -1.035392
2010-04-27 06:03:13 51°13.663 2°55.96 18.4287 0.078376 0.436306 -1.035392
2010-04-27 06:03:17 51°13.663 2°55.96 18.4312 0.078376 0.436306 -1.000568
2010-04-27 06:03:23 51°13.663 2°55.96 18.4292 0.078376 0.436306 -1.000568
2010-04-27 06:03:27 51°13.663 2°55.96 18.4302 0.078376 0.436306 -1.000568
2010-04-27 06:03:32 51°13.663 2°55.96 18.428 0.078376 0.43632 -1.000568
2010-04-27 06:03:37 51°13.663 2°55.96 18.4297 0.078376 0.43632 -1.000568
2010-04-27 06:03:42 51°13.663 2°55.96 18.435 0.078376 0.43632 -1.000568
2010-04-27 06:03:47 51°13.663 2°55.96 18.4378 0.078376 0.43632 -1.000568
2010-04-27 06:03:53 51°13.663 2°55.96 18.4439 0.078376 0.43632 -1.000568
2010-04-27 06:03:58 51°13.663 2°55.96 18.4395 0.078376 0.43632 -1.000568
2010-04-27 06:04:02 51°13.663 2°55.96 18.4442 0.078376 0.43632 -1.000568
2010-04-27 06:04:07 51°13.663 2°55.96 18.4289 0.078376 0.436327 -1.000568
2010-04-27 06:04:12 51°13.663 2°55.96 18.4257 0.078376 0.436327 -1.000568
2010-04-27 06:04:18 51°13.663 2°55.96 18.4208 0.078376 0.436327 -1.035392
2010-04-27 06:04:22 51°13.663 2°55.96 18.4405 0.078376 0.436327 -1.000568
2010-04-27 06:04:27 51°13.662 2°55.959 18.4515 0.078376 0.436327 -1.000568
2010-04-27 06:04:32 51°13.662 2°55.959 18.4431 0.078376 0.436342 -1.000568
2010-04-27 06:04:37 51°13.662 2°55.959 18.4606 0.078376 0.436342 -1.000568
2010-04-27 06:04:42 51°13.662 2°55.959 18.4665 0.078376 0.436342 -1.000568
2010-04-27 06:04:47 51°13.662 2°55.959 18.4696 0.078376 0.436342 -1.000568
2010-04-27 06:04:52 51°13.662 2°55.959 18.4656 0.078376 0.436342 -1.035392
2010-04-27 06:04:57 51°13.662 2°55.959 18.4612 0.078376 0.436349 -1.000568
2010-04-27 06:05:02 51°13.662 2°55.959 18.4513 0.078376 0.436349 -1.000568
2010-04-27 06:05:07 51°13.662 2°55.959 18.4503 0.078376 0.436349 -1.035392
2010-04-27 06:05:12 51°13.663 2°55.959 18.4506 0.078376 0.436349 -1.035392
2010-04-27 06:05:17 51°13.662 2°55.959 18.4541 0.078376 0.436356 -1.000568
2010-04-27 06:05:22 51°13.662 2°55.959 18.4553 0.078376 0.436356 -1.000568
2010-04-27 06:05:27 51°13.662 2°55.959 18.4558 0.078376 0.436356 -1.000568
2010-04-27 06:05:32 51°13.662 2°55.959 18.4581 0.078376 0.436363 -1.000568
2010-04-27 06:05:36 51°13.662 2°55.959 18.4674 0.078376 0.436363 -1.000568
2010-04-27 06:05:41 51°13.662 2°55.959 18.4722 0.078376 0.436363 -1.000568
2010-04-27 06:05:47 51°13.662 2°55.959 18.4731 0.078376 0.436371 -1.000568
2010-04-27 06:05:52 51°13.662 2°55.959 18.4732 0.078376 0.436371 -1.035392
2010-04-27 06:05:57 51°13.662 2°55.959 18.4846 0.078376 0.436378 -1.035392
2010-04-27 06:06:02 51°13.662 2°55.959 18.4883 0.078376 0.436378 -1.000568
2010-04-27 06:06:07 51°13.662 2°55.959 18.4856 0.078376 0.436378 -1.000568
2010-04-27 06:06:12 51°13.662 2°55.959 18.4754 0.078376 0.436378 -1.000568
2010-04-27 06:06:17 51°13.662 2°55.959 18.466 0.078376 0.436392 -0.965744
2010-04-27 06:06:22 51°13.662 2°55.959 18.4981 0.078376 0.436385 -0.965744
2010-04-27 06:06:27 51°13.662 2°55.959 18.518 0.078376 0.436392 -1.000568
2010-04-27 06:06:32 51°13.662 2°55.959 18.49 0.078376 0.436392 -0.965744
2010-04-27 06:06:37 51°13.663 2°55.959 18.4844 0.078376 0.436392 -0.965744
2010-04-27 06:06:42 51°13.662 2°55.959 18.4832 0.078376 0.436399 -1.000568
2010-04-27 06:06:47 51°13.662 2°55.959 18.4803 0.078376 0.436399 -1.000568
2010-04-27 06:06:52 51°13.662 2°55.959 18.4746 0.078376 0.436392 -1.000568
2010-04-27 06:06:57 51°13.662 2°55.959 18.4761 0.078376 0.436407 -1.035392
2010-04-27 06:07:02 51°13.662 2°55.959 18.4709 0.078376 0.436407 -1.035392
2010-04-27 06:07:07 51°13.662 2°55.959 18.4652 0.078376 0.436414 -1.000568
2010-04-27 06:07:11 51°13.662 2°55.959 18.4689 0.078376 0.436414 -1.000568
2010-04-27 06:07:17 51°13.662 2°55.959 18.4654 0.078376 0.436414 -1.035392
2010-04-27 06:07:21 51°13.662 2°55.959 18.4695 0.078376 0.436421 -1.000568
2010-04-27 06:07:26 51°13.662 2°55.959 18.4651 0.078376 0.436421 -1.000568
2010-04-27 06:07:31 51°13.662 2°55.959 18.4724 0.078376 0.436428 -1.000568
2010-04-27 06:07:36 51°13.662 2°55.959 18.4731 0.078376 0.436428 -1.035392
2010-04-27 06:07:41 51°13.662 2°55.959 18.4769 0.078376 0.436428 -1.035392
2010-04-27 06:07:46 51°13.662 2°55.959 18.4817 0.078376 0.436435 -1.035392
2010-04-27 06:07:51 51°13.662 2°55.959 18.4813 0.078376 0.436435 -1.000568
2010-04-27 06:07:57 51°13.662 2°55.959 18.4829 0.078376 0.436443 -1.000568
2010-04-27 06:08:01 51°13.662 2°55.959 18.4793 0.078376 0.436443 -1.000568
2010-04-27 06:08:05 51°13.662 2°55.959 18.4774 0.078376 0.436443 -1.000568
2010-04-27 06:08:10 51°13.662 2°55.959 18.4776 0.078376 0.436443 -1.000568
2010-04-27 06:08:16 51°13.662 2°55.959 18.4743 0.078376 0.43645 -1.000568
2010-04-27 06:08:21 51°13.662 2°55.959 18.4807 0.078376 0.436457 -1.000568
2010-04-27 06:08:25 51°13.662 2°55.959 18.4822 0.078376 0.436464 -1.000568
2010-04-27 06:08:30 51°13.662 2°55.959 18.4832 0.078376 0.436464 -1.000568
2010-04-27 06:08:36 51°13.662 2°55.959 18.4833 0.078376 0.436464 -1.000568
2010-04-27 06:08:42 51°13.662 2°55.959 18.4784 0.078376 0.436464 -1.000568
2010-04-27 06:08:45 51°13.662 2°55.959 18.4771 0.078376 0.436471 -1.035392
2010-04-27 06:08:50 51°13.662 2°55.959 18.4744 0.078376 0.436479 -1.000568
2010-04-27 06:08:56 51°13.662 2°55.959 18.4765 0.078376 0.436479 -0.965744
2010-04-27 06:09:01 51°13.662 2°55.959 18.479 0.078376 0.436479 -1.000568
2010-04-27 06:09:06 51°13.662 2°55.959 18.481 0.078376 0.436479 -1.000568
2010-04-27 06:09:11 51°13.662 2°55.959 18.4808 0.078376 0.436479 -1.000568
2010-04-27 06:09:16 51°13.662 2°55.959 18.4803 0.078376 0.436493 -1.000568
2010-04-27 06:09:21 51°13.662 2°55.959 18.4801 0.078376 0.436486 -1.000568
2010-04-27 06:09:26 51°13.662 2°55.959 18.4803 0.078376 0.436493 -1.000568
2010-04-27 06:09:31 51°13.662 2°55.959 18.4808 0.078376 0.436493 -1.000568
2010-04-27 06:09:36 51°13.662 2°55.959 18.482 0.078376 0.4365 -1.000568
2010-04-27 06:09:41 51°13.662 2°55.959 18.4826 0.078376 0.4365 -1.000568
2010-04-27 06:09:46 51°13.662 2°55.959 18.4819 0.078376 0.4365 -1.000568
2010-04-27 06:09:51 51°13.662 2°55.959 18.4805 0.078376 0.436507 -1.035392
2010-04-27 06:09:57 51°13.662 2°55.959 18.4844 0.078376 0.436507 -1.035392
2010-04-27 06:10:01 51°13.662 2°55.959 18.4837 0.078376 0.436515 -1.000568
2010-04-27 06:10:06 51°13.662 2°55.959 18.4859 0.078376 0.436515 -1.000568
2010-04-27 06:10:12 51°13.662 2°55.959 18.4878 0.078376 0.436515 -1.035392
2010-04-27 06:10:16 51°13.662 2°55.959 18.4901 0.078376 0.436522 -1.000568
2010-04-27 06:10:21 51°13.662 2°55.959 18.4912 0.078376 0.436529 -1.000568
2010-04-27 06:10:25 51°13.662 2°55.959 18.4932 0.078376 0.436529 -1.035392
2010-04-27 06:10:31 51°13.662 2°55.959 18.4881 0.078376 0.436529 -1.035392
2010-04-27 06:10:35 51°13.662 2°55.959 18.4872 0.078376 0.436536 -1.000568
2010-04-27 06:10:40 51°13.662 2°55.959 18.4868 0.078376 0.436536 -1.000568
2010-04-27 06:10:45 51°13.662 2°55.959 18.4825 0.078376 0.436536 -1.000568
2010-04-27 06:10:49 51°13.662 2°55.959 18.4832 0.078376 0.436536 -1.000568
2010-04-27 06:10:54 51°13.662 2°55.959 18.4835 0.078376 0.436543 -1.000568
2010-04-27 06:10:59 51°13.662 2°55.959 18.4829 0.078376 0.436551 -1.000568
2010-04-27 06:11:05 51°13.662 2°55.959 18.4848 0.078376 0.436551 -1.000568
2010-04-27 06:11:09 51°13.662 2°55.959 18.4843 0.078376 0.436551 -1.000568
2010-04-27 06:11:14 51°13.662 2°55.959 18.4844 0.078376 0.436558 -1.000568
2010-04-27 06:11:19 51°13.662 2°55.959 18.4828 0.078272 0.435957 -1.035392
2010-04-27 06:11:24 51°13.662 2°55.959 18.4816 0.078376 0.436558 -1.000568
2010-04-27 06:11:29 51°13.662 2°55.959 18.4868 0.078376 0.436565 -1.035392
2010-04-27 06:11:33 51°13.662 2°55.959 18.4857 0.078376 0.436565 -1.000568
2010-04-27 06:11:38 51°13.662 2°55.959 18.4874 0.078376 0.436565 -1.000568
2010-04-27 06:11:45 51°13.662 2°55.959 18.4851 0.078376 0.436572 -1.000568
2010-04-27 06:11:50 51°13.662 2°55.959 18.4828 0.078376 0.436572 -1.035392
2010-04-27 06:11:53 51°13.662 2°55.959 18.4872 0.078376 0.436572 -1.000568
2010-04-27 06:11:58 51°13.662 2°55.959 18.4874 0.078376 0.436579 -1.035392
2010-04-27 06:12:03 51°13.662 2°55.959 18.4869 0.078376 0.436579 -1.035392
2010-04-27 06:12:08 51°13.663 2°55.959 18.4827 0.078376 0.436587 -1.000568
2010-04-27 06:12:13 51°13.663 2°55.959 18.485 0.078272 0.435986 -1.000568
2010-04-27 06:12:18 51°13.663 2°55.959 18.4845 0.078376 0.436587 -1.000568
2010-04-27 06:12:23 51°13.663 2°55.959 18.4855 0.078376 0.436594 -1.000568
2010-04-27 06:12:28 51°13.663 2°55.959 18.4867 0.078376 0.436594 -1.035392
2010-04-27 06:12:33 51°13.662 2°55.959 18.4874 0.078376 0.436601 -1.000568
2010-04-27 06:12:38 51°13.662 2°55.959 18.4875 0.078376 0.436601 -1.000568
2010-04-27 06:12:43 51°13.662 2°55.959 18.4864 0.078376 0.436601 -0.965744
2010-04-27 06:12:49 51°13.662 2°55.959 18.4867 0.078376 0.436601 -1.035392
2010-04-27 06:12:54 51°13.662 2°55.96 18.4877 0.078376 0.436601 -1.000568
2010-04-27 06:12:58 51°13.662 2°55.96 18.4891 0.078376 0.436608 -1.000568
2010-04-27 06:13:04 51°13.662 2°55.96 18.4889 0.078376 0.436608 -1.035392
2010-04-27 06:13:09 51°13.662 2°55.96 18.4878 0.078376 0.436608 -1.035392
2010-04-27 06:13:14 51°13.662 2°55.96 18.4894 0.078376 0.436608 -1.000568
2010-04-27 06:13:18 51°13.662 2°55.96 18.4898 0.078376 0.436623 -1.000568
2010-04-27 06:13:23 51°13.662 2°55.96 18.4864 0.078376 0.436623 -1.035392
2010-04-27 06:13:28 51°13.662 2°55.96 18.4888 0.078376 0.436623 -1.035392
2010-04-27 06:13:34 51°13.662 2°55.96 18.4912 0.078376 0.436623 -1.000568
2010-04-27 06:13:38 51°13.662 2°55.96 18.489 0.078376 0.436623 -1.000568
2010-04-27 06:13:43 51°13.662 2°55.96 18.4901 0.078376 0.436637 -1.035392
2010-04-27 06:13:49 51°13.662 2°55.96 18.4874 0.078376 0.43663 -1.000568
2010-04-27 06:13:54 51°13.662 2°55.96 18.4903 0.078376 0.436637 -1.035392
2010-04-27 06:13:58 51°13.662 2°55.96 18.4885 0.078376 0.436637 -1.000568
2010-04-27 06:14:03 51°13.662 2°55.96 18.4909 0.078376 0.436637 -1.000568
2010-04-27 06:14:08 51°13.662 2°55.96 18.4915 0.078376 0.436637 -1.000568
2010-04-27 06:14:14 51°13.662 2°55.96 18.4961 0.078376 0.436651 -1.000568
2010-04-27 06:14:18 51°13.662 2°55.96 18.4973 0.078376 0.436651 -1.000568
2010-04-27 06:14:23 51°13.662 2°55.961 18.4984 0.078376 0.436659 -1.035392
2010-04-27 06:14:29 51°13.662 2°55.961 18.5 0.078376 0.436659 -1.000568
2010-04-27 06:14:34 51°13.662 2°55.961 18.5007 0.078376 0.436659 -1.000568
2010-04-27 06:14:38 51°13.662 2°55.961 18.5025 0.078376 0.436659 -1.000568
2010-04-27 06:14:43 51°13.662 2°55.961 18.5012 0.078376 0.436666 -1.000568
2010-04-27 06:14:48 51°13.662 2°55.961 18.5009 0.078376 0.436666 -1.035392
2010-04-27 06:14:54 51°13.662 2°55.961 18.5019 0.078376 0.436673 -1.035392
2010-04-27 06:14:58 51°13.662 2°55.961 18.5013 0.078376 0.436673 -1.035392
2010-04-27 06:15:04 51°13.662 2°55.961 18.5004 0.078376 0.436673 -1.000568
2010-04-27 06:15:09 51°13.662 2°55.961 18.5006 0.078376 0.436673 -1.000568
2010-04-27 06:15:14 51°13.662 2°55.96 18.4994 0.078376 0.43668 -1.000568
2010-04-27 06:15:19 51°13.662 2°55.96 18.5016 0.078376 0.43668 -1.000568
2010-04-27 06:15:24 51°13.662 2°55.961 18.5005 0.078376 0.43668 -1.035392
2010-04-27 06:15:29 51°13.662 2°55.961 18.5016 0.078376 0.436687 -0.965744
2010-04-27 06:15:34 51°13.662 2°55.961 18.5047 0.078376 0.436687 -0.965744
2010-04-27 06:15:39 51°13.662 2°55.961 18.5079 0.078376 0.436687 -1.000568
2010-04-27 06:15:43 51°13.662 2°55.961 18.5058 0.078272 0.436094 -1.000568
2010-04-27 06:15:49 51°13.662 2°55.961 18.5109 0.078376 0.436695 -1.000568
2010-04-27 06:15:54 51°13.662 2°55.961 18.5088 0.078272 0.436101 -1.000568
2010-04-27 06:15:59 51°13.662 2°55.961 18.5117 0.078272 0.436094 -1.035392
2010-04-27 06:16:04 51°13.662 2°55.961 18.5195 0.078376 0.436702 -1.000568
2010-04-27 06:16:08 51°13.662 2°55.961 18.5228 0.078376 0.436702 -1.000568
2010-04-27 06:16:14 51°13.662 2°55.961 18.5213 0.078376 0.436709 -1.000568
2010-04-27 06:16:19 51°13.662 2°55.961 18.5228 0.078376 0.436716 -1.000568
2010-04-27 06:16:24 51°13.662 2°55.961 18.5214 0.078376 0.436716 -1.035392
2010-04-27 06:16:28 51°13.662 2°55.961 18.5217 0.078376 0.436723 -0.965744
2010-04-27 06:16:34 51°13.662 2°55.961 18.5236 0.078376 0.436723 -1.000568
2010-04-27 06:16:39 51°13.662 2°55.96 18.5237 0.078376 0.436723 -1.000568
2010-04-27 06:16:43 51°13.662 2°55.96 18.5247 0.078376 0.436723 -1.035392
2010-04-27 06:16:49 51°13.662 2°55.96 18.5251 0.078376 0.436731 -1.000568
2010-04-27 06:16:54 51°13.662 2°55.96 18.525 0.078376 0.436731 -1.000568
2010-04-27 06:16:59 51°13.662 2°55.96 18.5258 0.078376 0.436731 -0.965744
2010-04-27 06:17:03 51°13.662 2°55.96 18.5245 0.078376 0.436738 -1.000568
2010-04-27 06:17:08 51°13.662 2°55.96 18.5243 0.078376 0.436738 -1.000568
2010-04-27 06:17:14 51°13.662 2°55.96 18.5227 0.078376 0.436738 -0.965744
2010-04-27 06:17:19 51°13.662 2°55.96 18.5234 0.078376 0.436745 -1.035392
2010-04-27 06:17:24 51°13.662 2°55.96 18.5274 0.078376 0.436752 -0.965744
2010-04-27 06:17:29 51°13.662 2°55.96 18.5459 0.078376 0.436745 -1.000568
2010-04-27 06:17:34 51°13.662 2°55.96 18.5516 0.078376 0.436745 -1.000568
2010-04-27 06:17:39 51°13.662 2°55.96 18.5509 0.078376 0.436752 -1.000568
2010-04-27 06:17:44 51°13.662 2°55.96 18.5484 0.078376 0.436759 -1.035392
2010-04-27 06:17:48 51°13.662 2°55.96 18.5584 0.078376 0.436759 -1.035392
2010-04-27 06:17:54 51°13.662 2°55.959 18.558 0.078376 0.436767 -1.000568
2010-04-27 06:17:59 51°13.662 2°55.959 18.5408 0.078376 0.436774 -1.000568
2010-04-27 06:18:03 51°13.662 2°55.959 18.5408 0.078376 0.436774 -1.000568
2010-04-27 06:18:09 51°13.662 2°55.959 18.5291 0.078376 0.436774 -1.000568
2010-04-27 06:18:14 51°13.662 2°55.96 18.5398 0.078376 0.436767 -1.000568
2010-04-27 06:18:19 51°13.662 2°55.96 18.5363 0.078376 0.436774 -1.035392
2010-04-27 06:18:24 51°13.662 2°55.96 18.5371 0.078272 0.43618 -1.000568
2010-04-27 06:18:29 51°13.662 2°55.96 18.5712 0.078376 0.436788 -0.965744
2010-04-27 06:18:34 51°13.662 2°55.96 18.5854 0.078272 0.436195 -1.035392
2010-04-27 06:18:39 51°13.662 2°55.96 18.5861 0.078272 0.436195 -1.035392
2010-04-27 06:18:44 51°13.661 2°55.961 18.5877 0.078376 0.436788 -1.035392
2010-04-27 06:18:49 51°13.661 2°55.961 18.5915 0.078376 0.436795 -1.000568
2010-04-27 06:18:54 51°13.662 2°55.96 18.5918 0.078376 0.436795 -0.965744
2010-04-27 06:18:59 51°13.661 2°55.96 18.5898 0.078272 0.436195 -1.035392
2010-04-27 06:19:03 51°13.661 2°55.96 18.5879 0.078272 0.436195 -1.035392
2010-04-27 06:19:09 51°13.661 2°55.96 18.5863 0.078272 0.436202 -1.000568
2010-04-27 06:19:14 51°13.661 2°55.96 18.5834 0.078272 0.436209 -1.000568
2010-04-27 06:19:19 51°13.661 2°55.96 18.5803 0.078272 0.436209 -0.965744
2010-04-27 06:19:23 51°13.661 2°55.96 18.577 0.078272 0.436209 -1.000568
2010-04-27 06:19:28 51°13.661 2°55.96 18.5741 0.078272 0.436216 -1.000568
2010-04-27 06:19:34 51°13.661 2°55.96 18.5734 0.078272 0.436224 -1.035392
2010-04-27 06:19:39 51°13.661 2°55.96 18.5737 0.078272 0.436224 -1.035392
2010-04-27 06:19:43 51°13.661 2°55.96 18.5765 0.078376 0.436817 -1.000568
2010-04-27 06:19:49 51°13.661 2°55.96 18.5788 0.078272 0.436224 -1.000568
2010-04-27 06:19:54 51°13.661 2°55.96 18.5818 0.078376 0.436824 -1.000568
2010-04-27 06:19:59 51°13.66 2°55.96 18.5834 0.078376 0.436839 -1.035392
2010-04-27 06:20:04 51°13.661 2°55.96 18.586 0.078376 0.436839 -1.035392
2010-04-27 06:20:08 51°13.66 2°55.96 18.5873 0.078376 0.436839 -1.035392
2010-04-27 06:20:14 51°13.66 2°55.96 18.5826 0.078376 0.436846 -1.000568
2010-04-27 06:20:19 51°13.661 2°55.961 18.565 0.078272 0.436245 -1.000568
2010-04-27 06:20:23 51°13.661 2°55.961 18.4948 0.078376 0.436846 -1.000568
2010-04-27 06:20:29 51°13.661 2°55.961 18.3796 0.078376 0.436853 -1.035392
2010-04-27 06:20:34 51°13.661 2°55.961 18.3779 0.078272 0.436252 -1.000568
2010-04-27 06:20:39 51°13.661 2°55.959 18.375 0.078272 0.436252 -1.000568
2010-04-27 06:20:43 51°13.662 2°55.958 18.3372 0.078376 0.436853 -1.035392
2010-04-27 06:20:48 51°13.662 2°55.955 18.4199 0.078376 0.43686 -1.000568
2010-04-27 06:20:54 51°13.663 2°55.951 18.4319 0.078376 0.43686 -1.035392
2010-04-27 06:20:59 51°13.665 2°55.946 18.51 0.078376 0.436868 -1.000568
2010-04-27 06:21:03 51°13.666 2°55.941 18.4291 0.078376 0.436868 -1.000568
2010-04-27 06:21:10 51°13.668 2°55.933 18.4947 0.078376 0.436868 -1.000568
2010-04-27 06:21:16 51°13.67 2°55.925 18.5168 0.078376 0.436875 -1.000568
2010-04-27 06:21:22 51°13.672 2°55.917 18.4705 0.078272 0.436281 -1.035392
2010-04-27 06:21:27 51°13.674 2°55.91 18.4871 0.078272 0.436281 -1.000568
2010-04-27 06:21:32 51°13.676 2°55.902 18.4946 0.078376 0.436882 -1.000568
2010-04-27 06:21:37 51°13.677 2°55.895 18.4901 0.078272 0.436281 -1.035392
2010-04-27 06:21:42 51°13.679 2°55.887 18.4806 0.078272 0.436281 -1.035392
2010-04-27 06:21:47 51°13.68 2°55.879 18.4883 0.078272 0.436288 -1.000568
2010-04-27 06:21:52 51°13.681 2°55.871 18.4705 0.078376 0.436889 -1.000568
2010-04-27 06:21:57 51°13.682 2°55.862 18.505 0.078376 0.436896 -1.000568
2010-04-27 06:22:02 51°13.684 2°55.853 18.5077 0.078376 0.436896 -1.000568
2010-04-27 06:22:07 51°13.685 2°55.844 18.5335 0.078376 0.436904 -1.000568
2010-04-27 06:22:12 51°13.686 2°55.836 18.5342 0.078376 0.436904 -1.000568
2010-04-27 06:22:17 51°13.687 2°55.828 18.5259 0.078376 0.436911 -1.000568
2010-04-27 06:22:22 51°13.688 2°55.82 18.5222 0.078272 0.436303 -1.000568
2010-04-27 06:22:27 51°13.688 2°55.813 18.5191 0.078376 0.436904 -1.000568
2010-04-27 06:22:32 51°13.689 2°55.805 18.5331 0.078272 0.43631 -1.000568
2010-04-27 06:22:37 51°13.689 2°55.799 18.5098 0.078376 0.436911 -1.000568
2010-04-27 06:22:42 51°13.69 2°55.792 18.5041 0.078376 0.436911 -1.000568
2010-04-27 06:22:47 51°13.69 2°55.785 18.5124 0.078272 0.43631 -1.000568
2010-04-27 06:22:51 51°13.69 2°55.781 18.5251 0.078272 0.436317 -1.000568
2010-04-27 06:22:57 51°13.691 2°55.776 18.5349 0.078376 0.436918 -1.035392
2010-04-27 06:23:02 51°13.691 2°55.773 18.5392 0.078272 0.436317 -1.000568
2010-04-27 06:23:07 51°13.691 2°55.771 18.5356 0.078272 0.436324 -1.035392
2010-04-27 06:23:12 51°13.692 2°55.77 18.5417 0.078272 0.436324 -1.035392
2010-04-27 06:23:17 51°13.692 2°55.769 18.5434 0.078272 0.436324 -1.035392
2010-04-27 06:23:22 51°13.692 2°55.769 18.5443 0.078272 0.436332 -0.965744
2010-04-27 06:23:27 51°13.693 2°55.769 18.5342 0.078376 0.43694 -1.035392
2010-04-27 06:23:32 51°13.693 2°55.769 18.5385 0.078376 0.436947 -1.035392
2010-04-27 06:23:37 51°13.694 2°55.769 18.5146 0.078272 0.436346 -1.035392
2010-04-27 06:23:42 51°13.695 2°55.769 18.5104 0.078272 0.436346 -1.035392
2010-04-27 06:23:47 51°13.695 2°55.769 18.5094 0.078376 0.436954 -0.965744
2010-04-27 06:23:52 51°13.695 2°55.769 18.5117 0.078272 0.43636 -1.000568
2010-04-27 06:23:57 51°13.695 2°55.768 18.4496 0.078376 0.436961 -1.000568
2010-04-27 06:24:02 51°13.696 2°55.766 18.3946 0.078376 0.436969 -1.035392
2010-04-27 06:24:07 51°13.695 2°55.764 18.455 0.078272 0.43636 -1.000568
2010-04-27 06:24:12 51°13.694 2°55.762 18.451 0.078272 0.43636 -1.000568
2010-04-27 06:24:17 51°13.693 2°55.76 18.556 0.078376 0.436969 -1.000568
2010-04-27 06:24:22 51°13.692 2°55.758 18.5138 0.078376 0.436961 -1.000568
2010-04-27 06:24:27 51°13.69 2°55.757 18.5226 0.078272 0.43636 -1.000568
2010-04-27 06:24:32 51°13.689 2°55.755 18.5446 0.078376 0.436961 -1.000568
2010-04-27 06:24:37 51°13.689 2°55.754 18.5866 0.078376 0.436969 -1.000568
2010-04-27 06:24:42 51°13.689 2°55.754 18.6334 0.078376 0.436969 -1.000568
2010-04-27 06:24:47 51°13.691 2°55.754 18.6359 0.078376 0.436961 -1.000568
2010-04-27 06:24:52 51°13.692 2°55.755 18.6396 0.078272 0.43636 -1.000568
2010-04-27 06:24:57 51°13.695 2°55.755 18.6455 0.078272 0.436368 -1.035392
2010-04-27 06:25:02 51°13.698 2°55.754 18.6532 0.078272 0.436389 -1.035392
2010-04-27 06:25:07 51°13.701 2°55.753 18.6564 0.078272 0.436396 -1.000568
2010-04-27 06:25:11 51°13.704 2°55.751 18.6572 0.078272 0.436396 -1.000568
2010-04-27 06:25:17 51°13.71 2°55.748 18.6472 0.078272 0.436404 -1.000568
2010-04-27 06:25:22 51°13.714 2°55.744 18.5478 0.078272 0.436418 -1.035392
2010-04-27 06:25:27 51°13.72 2°55.739 18.5513 0.078272 0.436418 -1.035392
2010-04-27 06:25:32 51°13.725 2°55.734 18.45 0.078272 0.436418 -1.035392
2010-04-27 06:25:37 51°13.731 2°55.728 18.4511 0.078272 0.436411 -1.000568
2010-04-27 06:25:42 51°13.737 2°55.722 18.4167 0.078272 0.436411 -1.000568
2010-04-27 06:25:47 51°13.744 2°55.715 18.3188 0.078376 0.436997 -1.000568
2010-04-27 06:25:52 51°13.752 2°55.708 18.3294 0.078272 0.436396 -1.000568
2010-04-27 06:25:57 51°13.759 2°55.7 18.3192 0.078272 0.436382 -1.000568
2010-04-27 06:26:02 51°13.767 2°55.693 18.3192 0.078376 0.43699 -1.000568
2010-04-27 06:26:07 51°13.774 2°55.685 18.3028 0.078272 0.436404 -1.035392
2010-04-27 06:26:11 51°13.781 2°55.679 18.3236 0.078272 0.436404 -1.035392
2010-04-27 06:26:17 51°13.791 2°55.669 18.3116 0.078272 0.436404 -1.000568
2010-04-27 06:26:22 51°13.8 2°55.661 18.2905 0.078272 0.436411 -0.965744
2010-04-27 06:26:27 51°13.809 2°55.654 18.3021 0.078272 0.436418 -1.000568
2010-04-27 06:26:31 51°13.816 2°55.648 18.3119 0.078272 0.436425 -1.000568
2010-04-27 06:26:37 51°13.827 2°55.638 18.3015 0.078272 0.436432 -1.000568
2010-04-27 06:26:42 51°13.837 2°55.631 18.3178 0.078272 0.436432 -1.000568
2010-04-27 06:26:47 51°13.846 2°55.623 18.3229 0.078272 0.43644 -1.000568
2010-04-27 06:26:51 51°13.854 2°55.618 18.3446 0.078272 0.436447 -1.035392
2010-04-27 06:26:56 51°13.864 2°55.61 18.37 0.078272 0.436454 -1.000568
2010-04-27 06:27:01 51°13.874 2°55.602 18.3723 0.078272 0.436461 -1.000568
2010-04-27 06:27:07 51°13.886 2°55.593 18.3765 0.078272 0.436461 -1.000568
2010-04-27 06:27:11 51°13.894 2°55.587 18.3806 0.078272 0.436461 -1.000568
2010-04-27 06:27:16 51°13.904 2°55.58 18.3816 0.078272 0.436461 -1.000568
2010-04-27 06:27:21 51°13.914 2°55.572 18.3846 0.078272 0.436461 -1.000568
2010-04-27 06:27:27 51°13.927 2°55.564 18.3852 0.078272 0.436461 -1.000568
2010-04-27 06:27:32 51°13.938 2°55.557 18.3672 0.078272 0.436461 -1.000568
2010-04-27 06:27:37 51°13.948 2°55.55 18.4308 0.078272 0.436461 -1.000568
2010-04-27 06:27:42 51°13.959 2°55.542 18.4093 0.078272 0.436461 -1.000568
2010-04-27 06:27:47 51°13.97 2°55.535 18.3497 0.078272 0.436469 -1.000568
2010-04-27 06:27:51 51°13.978 2°55.529 18.3818 0.078272 0.436483 -0.965744
2010-04-27 06:27:56 51°13.989 2°55.521 18.4529 0.078272 0.436476 -1.035392
2010-04-27 06:28:01 51°14 2°55.513 18.4338 0.078272 0.43649 -1.035392
2010-04-27 06:28:06 51°14.011 2°55.505 18.4292 0.078272 0.43649 -1.035392
2010-04-27 06:28:11 51°14.022 2°55.497 18.3575 0.078272 0.436483 -1.000568
2010-04-27 06:28:16 51°14.033 2°55.49 18.3611 0.078272 0.43649 -1.000568
2010-04-27 06:28:21 51°14.044 2°55.482 18.4518 0.078272 0.436476 -1.035392
2010-04-27 06:28:26 51°14.055 2°55.474 18.4275 0.078272 0.436483 -1.035392
2010-04-27 06:28:31 51°14.067 2°55.467 18.4372 0.078272 0.43649 -1.000568
2010-04-27 06:28:37 51°14.081 2°55.457 18.4496 0.078272 0.43649 -1.000568
2010-04-27 06:28:42 51°14.092 2°55.449 18.4555 0.078272 0.43649 -1.000568
2010-04-27 06:28:47 51°14.104 2°55.44 18.4203 0.078272 0.436497 -1.000568
2010-04-27 06:28:51 51°14.113 2°55.434 18.3358 0.078272 0.436505 -1.035392
2010-04-27 06:28:57 51°14.127 2°55.424 18.3316 0.078272 0.436497 -1.000568
2010-04-27 06:29:02 51°14.14 2°55.416 18.4112 0.078272 0.436497 -0.965744
2010-04-27 06:29:07 51°14.152 2°55.408 18.454 0.078272 0.436497 -1.000568
2010-04-27 06:29:12 51°14.164 2°55.398 18.4939 0.078272 0.436497 -1.000568
2010-04-27 06:29:17 51°14.175 2°55.389 18.5172 0.078272 0.436505 -1.035392
2010-04-27 06:29:22 51°14.187 2°55.379 18.5457 0.078376 0.437113 -1.000568
2010-04-27 06:29:27 51°14.198 2°55.368 18.5107 0.078272 0.436519 -1.035392
2010-04-27 06:29:31 51°14.207 2°55.359 18.4871 0.078272 0.436519 -1.000568
2010-04-27 06:29:36 51°14.219 2°55.348 18.3682 0.078272 0.436519 -1.000568
2010-04-27 06:29:41 51°14.23 2°55.337 18.346 0.078272 0.436533 -1.035392
2010-04-27 06:29:46 51°14.242 2°55.326 18.4021 0.078272 0.436519 -1.000568
2010-04-27 06:29:51 51°14.254 2°55.315 18.5102 0.078272 0.436519 -1.000568
2010-04-27 06:29:55 51°14.263 2°55.306 18.419 0.078272 0.436526 -1.000568
2010-04-27 06:30:00 51°14.275 2°55.295 18.4365 0.078272 0.436526 -1.000568
2010-04-27 06:30:05 51°14.287 2°55.283 18.4144 0.078272 0.436526 -1.000568
2010-04-27 06:30:11 51°14.301 2°55.269 18.4408 0.078272 0.436533 -1.000568
2010-04-27 06:30:15 51°14.311 2°55.26 18.4349 0.078272 0.436533 -1.000568
2010-04-27 06:30:20 51°14.324 2°55.248 18.464 0.078272 0.436541 -1.000568
2010-04-27 06:30:25 51°14.336 2°55.235 18.3589 0.078272 0.436548 -1.000568
2010-04-27 06:30:30 51°14.348 2°55.223 18.4445 0.078272 0.436541 -1.000568
2010-04-27 06:30:35 51°14.361 2°55.211 18.4294 0.078272 0.436555 -1.000568
2010-04-27 06:30:39 51°14.371 2°55.201 18.4845 0.078272 0.436555 -1.000568
2010-04-27 06:30:44 51°14.384 2°55.188 18.3903 0.078376 0.437142 -1.000568
2010-04-27 06:30:49 51°14.397 2°55.175 18.4062 0.078272 0.436562 -1.035392
2010-04-27 06:30:54 51°14.41 2°55.162 18.3108 0.078272 0.436555 -1.035392
2010-04-27 06:30:59 51°14.423 2°55.149 18.3215 0.078272 0.436562 -1.000568
2010-04-27 06:31:03 51°14.434 2°55.139 18.3284 0.078272 0.436562 -1.000568
2010-04-27 06:31:08 51°14.448 2°55.126 18.4246 0.078272 0.436562 -1.000568
2010-04-27 06:31:13 51°14.463 2°55.113 18.4513 0.078376 0.437156 -1.000568
2010-04-27 06:31:18 51°14.478 2°55.099 18.5486 0.078272 0.43657 -1.000568
2010-04-27 06:31:23 51°14.492 2°55.085 18.4334 0.078272 0.43657 -1.035392
2010-04-27 06:31:28 51°14.506 2°55.069 18.4227 0.078272 0.436598 -0.965744
2010-04-27 06:31:33 51°14.521 2°55.053 18.5497 0.078272 0.436584 -1.000568
2010-04-27 06:31:38 51°14.535 2°55.034 18.52 0.078272 0.436584 -1.000568
2010-04-27 06:31:43 51°14.548 2°55.014 18.2556 0.078272 0.436598 -1.035392
2010-04-27 06:31:48 51°14.56 2°54.992 18.2053 0.078272 0.436598 -1.000568
2010-04-27 06:31:53 51°14.574 2°54.971 18.1883 0.078272 0.436591 -1.000568
2010-04-27 06:31:58 51°14.588 2°54.951 18.4077 0.078272 0.436577 -1.000568
2010-04-27 06:32:03 51°14.603 2°54.931 18.2178 0.078272 0.43657 -1.000568
2010-04-27 06:32:08 51°14.617 2°54.911 18.2614 0.078272 0.43657 -1.000568
2010-04-27 06:32:13 51°14.631 2°54.891 18.3815 0.078272 0.436584 -1.035392
2010-04-27 06:32:18 51°14.646 2°54.872 18.3893 0.078272 0.436591 -1.000568
2010-04-27 06:32:23 51°14.661 2°54.852 18.3783 0.078272 0.436606 -1.000568
2010-04-27 06:32:28 51°14.675 2°54.833 18.3596 0.078272 0.436606 -1.000568
2010-04-27 06:32:33 51°14.691 2°54.815 18.4348 0.078272 0.436598 -1.035392
2010-04-27 06:32:38 51°14.706 2°54.797 18.3614 0.078272 0.436598 -1.035392
2010-04-27 06:32:43 51°14.721 2°54.778 18.1869 0.078272 0.436591 -1.035392
2010-04-27 06:32:48 51°14.736 2°54.761 18.3089 0.078272 0.436606 -1.000568
2010-04-27 06:32:53 51°14.752 2°54.744 18.3052 0.078272 0.436598 -1.000568
2010-04-27 06:32:58 51°14.768 2°54.728 18.5075 0.078272 0.436591 -1.000568
2010-04-27 06:33:03 51°14.784 2°54.712 18.4776 0.078272 0.436613 -1.000568
2010-04-27 06:33:08 51°14.8 2°54.695 18.4059 0.078272 0.436613 -1.000568
2010-04-27 06:33:13 51°14.815 2°54.677 18.2714 0.078272 0.436627 -1.000568
2010-04-27 06:33:18 51°14.83 2°54.658 18.4414 0.078272 0.436649 -0.965744
2010-04-27 06:33:23 51°14.845 2°54.64 18.3496 0.078272 0.436627 -1.000568
2010-04-27 06:33:28 51°14.86 2°54.621 18.412 0.078272 0.436642 -1.000568
2010-04-27 06:33:33 51°14.875 2°54.602 18.2587 0.078272 0.436634 -1.000568
2010-04-27 06:33:38 51°14.889 2°54.582 18.2921 0.078272 0.436634 -1.000568
2010-04-27 06:33:43 51°14.905 2°54.563 18.3224 0.078272 0.436634 -1.000568
2010-04-27 06:33:48 51°14.919 2°54.544 18.3442 0.078376 0.437229 -1.000568
2010-04-27 06:33:53 51°14.934 2°54.526 18.4072 0.078272 0.436627 -1.000568
2010-04-27 06:33:58 51°14.948 2°54.507 18.4514 0.078272 0.436627 -1.000568
2010-04-27 06:34:03 51°14.962 2°54.488 18.5058 0.078272 0.436642 -1.035392
2010-04-27 06:34:08 51°14.976 2°54.468 18.5349 0.078272 0.436642 -1.035392
2010-04-27 06:34:13 51°14.988 2°54.445 18.5081 0.078376 0.43725 -1.035392
2010-04-27 06:34:18 51°14.998 2°54.42 18.5071 0.078376 0.437279 -1.000568
2010-04-27 06:34:23 51°15.006 2°54.393 18.5001 0.078376 0.437294 -1.000568
2010-04-27 06:34:28 51°15.011 2°54.365 18.4672 0.078272 0.436707 -1.035392
2010-04-27 06:34:33 51°15.014 2°54.335 18.3971 0.078272 0.436707 -1.000568
2010-04-27 06:34:38 51°15.015 2°54.305 18.3852 0.078272 0.436707 -1.000568
2010-04-27 06:34:43 51°15.014 2°54.275 18.4123 0.078272 0.436699 -1.000568
2010-04-27 06:34:48 51°15.011 2°54.246 18.4341 0.078272 0.436692 -1.000568
2010-04-27 06:34:53 51°15.005 2°54.217 18.4148 0.078272 0.436699 -1.000568
2010-04-27 06:34:58 51°14.998 2°54.189 18.4055 0.078272 0.436692 -1.000568
2010-04-27 06:35:03 51°14.989 2°54.162 18.4325 0.078272 0.436692 -1.000568
2010-04-27 06:35:08 51°14.978 2°54.137 18.4059 0.078272 0.436699 -0.965744
2010-04-27 06:35:14 51°14.962 2°54.11 18.4503 0.078272 0.436707 -1.035392
2010-04-27 06:35:18 51°14.951 2°54.094 18.3953 0.078272 0.436714 -1.035392
2010-04-27 06:35:23 51°14.935 2°54.077 18.2737 0.078272 0.436721 -1.000568
2010-04-27 06:35:28 51°14.918 2°54.061 18.275 0.078272 0.436721 -1.000568
2010-04-27 06:35:33 51°14.901 2°54.047 18.2401 0.078272 0.436721 -1.000568
2010-04-27 06:35:38 51°14.883 2°54.034 18.2139 0.078272 0.436707 -1.000568
2010-04-27 06:35:43 51°14.865 2°54.021 18.099 0.078272 0.436692 -1.035392
2010-04-27 06:35:48 51°14.847 2°54.01 18.2532 0.078272 0.436671 -1.000568
2010-04-27 06:35:53 51°14.829 2°53.997 18.1753 0.078272 0.436649 -1.000568
2010-04-27 06:35:58 51°14.81 2°53.986 18.197 0.078272 0.436656 -1.000568
2010-04-27 06:36:03 51°14.792 2°53.973 18.2102 0.078272 0.436642 -1.000568
2010-04-27 06:36:08 51°14.773 2°53.962 18.1559 0.078272 0.436642 -1.000568
2010-04-27 06:36:13 51°14.754 2°53.95 18.2284 0.078272 0.436671 -1.035392
2010-04-27 06:36:18 51°14.736 2°53.938 18.2669 0.078272 0.436663 -1.000568
2010-04-27 06:36:23 51°14.717 2°53.926 18.3157 0.078272 0.436678 -1.000568
2010-04-27 06:36:28 51°14.698 2°53.915 18.271 0.078272 0.436692 -1.000568
2010-04-27 06:36:33 51°14.678 2°53.904 18.3115 0.078272 0.436692 -1.035392
2010-04-27 06:36:39 51°14.655 2°53.892 18.3222 0.078272 0.436692 -1.035392
2010-04-27 06:36:43 51°14.64 2°53.884 18.2938 0.078272 0.436699 -1.000568
2010-04-27 06:36:48 51°14.62 2°53.875 18.3271 0.078272 0.436714 -1.000568
2010-04-27 06:36:54 51°14.596 2°53.865 18.2929 0.078272 0.436714 -1.000568
2010-04-27 06:36:58 51°14.581 2°53.858 18.3204 0.078376 0.437323 -1.000568
2010-04-27 06:37:03 51°14.561 2°53.851 18.2889 0.078272 0.436728 -1.000568
2010-04-27 06:37:08 51°14.542 2°53.844 18.2951 0.078272 0.436728 -1.000568
2010-04-27 06:37:13 51°14.523 2°53.837 18.283 0.078272 0.436736 -1.035392
2010-04-27 06:37:18 51°14.503 2°53.83 18.2764 0.078272 0.436736 -1.000568
2010-04-27 06:37:23 51°14.484 2°53.823 18.2498 0.078272 0.43675 -1.070216
2010-04-27 06:37:28 51°14.465 2°53.817 18.1487 0.078272 0.43675 -1.035392
2010-04-27 06:37:34 51°14.441 2°53.808 18.1689 0.078272 0.436736 -1.035392
2010-04-27 06:37:39 51°14.422 2°53.8 18.2089 0.078272 0.436736 -1.035392
2010-04-27 06:37:43 51°14.407 2°53.792 18.2241 0.078376 0.437344 -1.035392
2010-04-27 06:37:48 51°14.388 2°53.783 18.2054 0.078272 0.43675 -1.000568
2010-04-27 06:37:53 51°14.369 2°53.773 18.2641 0.078272 0.436743 -1.000568
2010-04-27 06:37:58 51°14.35 2°53.762 18.0831 0.078272 0.43675 -1.000568
2010-04-27 06:38:03 51°14.331 2°53.751 18.0831 0.078272 0.436764 -1.000568
2010-04-27 06:38:08 51°14.314 2°53.738 18.0757 0.078272 0.436764 -1.000568
2010-04-27 06:38:13 51°14.296 2°53.723 18.1603 0.078272 0.436764 -1.035392
2010-04-27 06:38:18 51°14.279 2°53.705 18.138 0.078272 0.436764 -1.035392
2010-04-27 06:38:23 51°14.263 2°53.687 18.1113 0.078272 0.436779 -1.035392
2010-04-27 06:38:28 51°14.247 2°53.666 18.1822 0.078272 0.436779 -1.000568
2010-04-27 06:38:33 51°14.233 2°53.644 18.231 0.078272 0.436793 -1.035392
2010-04-27 06:38:38 51°14.22 2°53.62 18.2168 0.078272 0.436793 -1.035392
2010-04-27 06:38:43 51°14.207 2°53.595 18.2611 0.078272 0.4368 -1.000568
2010-04-27 06:38:48 51°14.195 2°53.57 18.2848 0.078272 0.4368 -1.000568
2010-04-27 06:38:53 51°14.183 2°53.544 18.2654 0.078272 0.436815 -1.000568
2010-04-27 06:38:58 51°14.17 2°53.519 18.2887 0.078272 0.436815 -1.035392
2010-04-27 06:39:03 51°14.159 2°53.492 18.2487 0.078272 0.436815 -1.035392
2010-04-27 06:39:08 51°14.147 2°53.466 18.2811 0.078272 0.436808 -1.035392
2010-04-27 06:39:13 51°14.135 2°53.44 18.2806 0.078272 0.436815 -1.000568
2010-04-27 06:39:18 51°14.124 2°53.413 18.3463 0.078272 0.436829 -1.000568
2010-04-27 06:39:23 51°14.112 2°53.387 18.3698 0.078272 0.436844 -1.000568
2010-04-27 06:39:28 51°14.099 2°53.361 18.2528 0.078272 0.436858 -1.000568
2010-04-27 06:39:33 51°14.085 2°53.337 18.2804 0.078272 0.436873 -1.000568
2010-04-27 06:39:38 51°14.071 2°53.313 18.2514 0.078272 0.436873 -1.000568
2010-04-27 06:39:43 51°14.057 2°53.289 18.2965 0.078272 0.436887 -1.035392
2010-04-27 06:39:48 51°14.042 2°53.266 18.2698 0.078272 0.43688 -1.035392
2010-04-27 06:39:53 51°14.027 2°53.244 18.2219 0.078272 0.436887 -1.000568
2010-04-27 06:39:58 51°14.012 2°53.222 18.2709 0.078272 0.43688 -1.000568
2010-04-27 06:40:03 51°13.997 2°53.2 18.2051 0.078272 0.436887 -1.035392
2010-04-27 06:40:08 51°13.981 2°53.178 18.1814 0.078272 0.436887 -1.035392
2010-04-27 06:40:13 51°13.966 2°53.157 18.221 0.078272 0.436887 -1.000568
2010-04-27 06:40:18 51°13.951 2°53.134 18.1603 0.078272 0.436887 -1.000568
2010-04-27 06:40:23 51°13.937 2°53.111 18.1462 0.078272 0.436894 -1.000568
2010-04-27 06:40:28 51°13.922 2°53.087 18.2339 0.078272 0.436894 -1.035392
2010-04-27 06:40:33 51°13.908 2°53.062 18.1702 0.078272 0.436894 -1.035392
2010-04-27 06:40:38 51°13.895 2°53.038 18.2667 0.078272 0.436902 -1.035392
2010-04-27 06:40:43 51°13.881 2°53.012 18.1867 0.078272 0.436909 -1.035392
2010-04-27 06:40:48 51°13.868 2°52.987 18.1699 0.078272 0.436916 -1.000568
2010-04-27 06:40:53 51°13.855 2°52.961 18.1951 0.078272 0.436909 -1.000568
2010-04-27 06:40:58 51°13.842 2°52.935 18.2191 0.078272 0.436916 -1.000568
2010-04-27 06:41:03 51°13.83 2°52.908 18.2495 0.078272 0.436916 -1.035392
2010-04-27 06:41:08 51°13.819 2°52.88 18.2478 0.078272 0.436916 -1.035392
2010-04-27 06:41:13 51°13.807 2°52.853 18.2321 0.078272 0.436923 -1.035392
2010-04-27 06:41:18 51°13.796 2°52.825 18.2614 0.078272 0.436938 -1.000568
2010-04-27 06:41:23 51°13.784 2°52.797 18.2755 0.078272 0.436952 -1.000568
2010-04-27 06:41:28 51°13.773 2°52.77 18.2643 0.078272 0.436967 -1.000568
2010-04-27 06:41:33 51°13.762 2°52.742 18.2802 0.078272 0.436967 -1.000568
2010-04-27 06:41:38 51°13.75 2°52.714 18.2623 0.078272 0.436967 -1.000568
2010-04-27 06:41:43 51°13.738 2°52.687 18.2733 0.078272 0.436981 -1.000568
2010-04-27 06:41:48 51°13.726 2°52.66 18.2518 0.078272 0.436988 -1.000568
2010-04-27 06:41:53 51°13.714 2°52.633 18.2412 0.078272 0.436981 -0.965744
2010-04-27 06:41:58 51°13.702 2°52.606 18.2381 0.078272 0.436996 -1.000568
2010-04-27 06:42:03 51°13.689 2°52.579 18.241 0.078272 0.436988 -1.035392
2010-04-27 06:42:08 51°13.677 2°52.552 18.1856 0.078272 0.436988 -1.035392
2010-04-27 06:42:13 51°13.665 2°52.525 18.1918 0.078272 0.436996 -1.035392
2010-04-27 06:42:18 51°13.653 2°52.497 18.2436 0.078272 0.436988 -1.000568
2010-04-27 06:42:23 51°13.642 2°52.469 18.2437 0.078272 0.436996 -1.000568
2010-04-27 06:42:28 51°13.631 2°52.441 18.2419 0.078272 0.43701 -1.035392
2010-04-27 06:42:33 51°13.62 2°52.412 18.2752 0.078272 0.43701 -1.035392
2010-04-27 06:42:38 51°13.609 2°52.383 18.2253 0.078272 0.43701 -1.000568
2010-04-27 06:42:43 51°13.599 2°52.354 18.276 0.078272 0.437025 -1.000568
2010-04-27 06:42:48 51°13.589 2°52.325 18.2865 0.078272 0.437025 -1.000568
2010-04-27 06:42:53 51°13.578 2°52.296 18.2938 0.078272 0.437032 -0.965744
2010-04-27 06:42:58 51°13.568 2°52.267 18.2838 0.078272 0.437046 -1.000568
2010-04-27 06:43:03 51°13.557 2°52.238 18.2358 0.078272 0.437039 -1.000568
2010-04-27 06:43:08 51°13.546 2°52.209 18.2983 0.078272 0.437039 -1.000568
2010-04-27 06:43:13 51°13.536 2°52.18 18.2797 0.078272 0.437046 -1.000568
2010-04-27 06:43:18 51°13.525 2°52.152 18.2854 0.078272 0.437061 -0.965744
2010-04-27 06:43:23 51°13.513 2°52.123 18.2858 0.078272 0.437053 -1.000568
2010-04-27 06:43:28 51°13.502 2°52.095 18.2879 0.078272 0.437075 -1.000568
2010-04-27 06:43:33 51°13.491 2°52.067 18.2671 0.078272 0.437082 -1.000568
2010-04-27 06:43:38 51°13.479 2°52.038 18.2362 0.078272 0.437082 -1.000568
2010-04-27 06:43:43 51°13.468 2°52.01 18.2146 0.078272 0.437082 -1.000568
2010-04-27 06:43:48 51°13.457 2°51.981 18.2192 0.078272 0.437082 -1.000568
2010-04-27 06:43:53 51°13.446 2°51.952 18.2422 0.078272 0.437075 -1.000568
2010-04-27 06:43:58 51°13.436 2°51.923 18.2422 0.078272 0.437082 -0.965744
2010-04-27 06:44:03 51°13.425 2°51.894 18.2751 0.078272 0.437082 -0.965744
2010-04-27 06:44:08 51°13.415 2°51.864 18.2853 0.078272 0.43709 -1.000568
2010-04-27 06:44:13 51°13.404 2°51.835 18.278 0.078272 0.43709 -1.035392
2010-04-27 06:44:18 51°13.394 2°51.805 18.2853 0.078272 0.437097 -0.965744
2010-04-27 06:44:23 51°13.383 2°51.776 18.2848 0.078272 0.437104 -1.000568
2010-04-27 06:44:28 51°13.373 2°51.747 18.3094 0.078272 0.437119 -1.000568
2010-04-27 06:44:33 51°13.362 2°51.718 18.2629 0.078272 0.437111 -1.000568
2010-04-27 06:44:38 51°13.351 2°51.689 18.3081 0.078272 0.437111 -1.000568
2010-04-27 06:44:43 51°13.34 2°51.66 18.2484 0.078272 0.437119 -0.965744
2010-04-27 06:44:48 51°13.328 2°51.632 18.2701 0.078272 0.437126 -1.000568
2010-04-27 06:44:53 51°13.317 2°51.603 18.2447 0.078272 0.437111 -1.000568
2010-04-27 06:44:58 51°13.305 2°51.575 18.2648 0.078272 0.437133 -1.035392
2010-04-27 06:45:03 51°13.294 2°51.546 18.2282 0.078272 0.437133 -1.035392
2010-04-27 06:45:08 51°13.283 2°51.518 18.2476 0.078272 0.437133 -1.035392
2010-04-27 06:45:13 51°13.272 2°51.489 18.2858 0.078272 0.437133 -1.000568
2010-04-27 06:45:18 51°13.261 2°51.46 18.2544 0.078272 0.43714 -1.035392
2010-04-27 06:45:23 51°13.249 2°51.431 18.2596 0.078272 0.437133 -1.000568
2010-04-27 06:45:28 51°13.238 2°51.403 18.2497 0.078272 0.43714 -1.000568
2010-04-27 06:45:33 51°13.227 2°51.374 18.2337 0.078272 0.43714 -1.000568
2010-04-27 06:45:38 51°13.216 2°51.345 18.2596 0.078272 0.43714 -1.000568
2010-04-27 06:45:43 51°13.205 2°51.316 18.2834 0.078272 0.437148 -1.035392
2010-04-27 06:45:48 51°13.194 2°51.287 18.3004 0.078272 0.437155 -1.000568
2010-04-27 06:45:53 51°13.183 2°51.258 18.2635 0.078272 0.437148 -1.000568
2010-04-27 06:45:58 51°13.172 2°51.229 18.2943 0.078272 0.437155 -1.000568
2010-04-27 06:46:03 51°13.161 2°51.201 18.2739 0.078272 0.437169 -1.000568
2010-04-27 06:46:08 51°13.15 2°51.172 18.295 0.078272 0.437169 -1.000568
2010-04-27 06:46:13 51°13.139 2°51.143 18.2828 0.078272 0.437162 -0.965744
2010-04-27 06:46:18 51°13.128 2°51.114 18.2223 0.078272 0.437176 -1.035392
2010-04-27 06:46:23 51°13.117 2°51.086 18.2712 0.078272 0.437176 -1.000568
2010-04-27 06:46:28 51°13.106 2°51.057 18.2928 0.078272 0.437176 -1.000568
2010-04-27 06:46:33 51°13.095 2°51.028 18.2527 0.078272 0.437176 -1.000568
2010-04-27 06:46:38 51°13.083 2°51 18.2571 0.078272 0.437176 -1.000568
2010-04-27 06:46:43 51°13.073 2°50.971 18.2842 0.078272 0.437184 -1.035392
2010-04-27 06:46:48 51°13.062 2°50.942 18.2882 0.078272 0.437176 -1.035392
2010-04-27 06:46:53 51°13.05 2°50.913 18.2927 0.078272 0.437184 -1.035392
2010-04-27 06:46:58 51°13.04 2°50.885 18.2728 0.078272 0.437191 -1.000568
2010-04-27 06:47:03 51°13.029 2°50.856 18.2487 0.078272 0.437198 -1.035392
2010-04-27 06:47:08 51°13.017 2°50.827 18.2688 0.078272 0.437198 -1.035392
2010-04-27 06:47:13 51°13.006 2°50.799 18.2936 0.078272 0.437198 -1.000568
2010-04-27 06:47:18 51°12.995 2°50.77 18.2838 0.078272 0.437191 -1.000568
2010-04-27 06:47:23 51°12.984 2°50.742 18.2851 0.078272 0.437198 -1.000568
2010-04-27 06:47:28 51°12.972 2°50.713 18.2927 0.078272 0.437198 -1.035392
2010-04-27 06:47:33 51°12.961 2°50.685 18.2749 0.078272 0.437213 -0.965744
2010-04-27 06:47:38 51°12.949 2°50.657 18.2106 0.078272 0.437213 -0.965744
2010-04-27 06:47:43 51°12.938 2°50.629 18.2794 0.078272 0.437205 -1.000568
2010-04-27 06:47:48 51°12.927 2°50.6 18.2664 0.078272 0.437205 -1.035392
2010-04-27 06:47:53 51°12.915 2°50.572 18.2701 0.078272 0.437205 -1.000568
2010-04-27 06:47:58 51°12.904 2°50.543 18.2623 0.078272 0.437213 -1.000568
2010-04-27 06:48:03 51°12.894 2°50.514 18.2245 0.078272 0.43722 -1.035392
2010-04-27 06:48:08 51°12.883 2°50.485 18.2604 0.078272 0.43722 -1.035392
2010-04-27 06:48:13 51°12.872 2°50.456 18.2796 0.078272 0.43722 -0.965744
2010-04-27 06:48:18 51°12.861 2°50.427 18.2878 0.078272 0.43722 -1.000568
2010-04-27 06:48:23 51°12.85 2°50.399 18.2667 0.078272 0.43722 -1.000568
2010-04-27 06:48:28 51°12.839 2°50.37 18.2395 0.078272 0.437227 -1.000568
2010-04-27 06:48:33 51°12.828 2°50.342 18.2762 0.078272 0.43722 -1.000568
2010-04-27 06:48:38 51°12.817 2°50.313 18.2573 0.078272 0.43722 -1.000568
2010-04-27 06:48:43 51°12.805 2°50.285 18.2689 0.078272 0.437234 -1.000568
2010-04-27 06:48:48 51°12.794 2°50.256 18.2639 0.078272 0.43722 -1.035392
2010-04-27 06:48:53 51°12.783 2°50.228 18.264 0.078272 0.437234 -1.035392
2010-04-27 06:48:58 51°12.772 2°50.199 18.2457 0.078272 0.437234 -1.035392
2010-04-27 06:49:03 51°12.761 2°50.171 18.2511 0.078272 0.437242 -0.965744
2010-04-27 06:49:08 51°12.75 2°50.142 18.267 0.078272 0.437242 -0.965744
2010-04-27 06:49:13 51°12.739 2°50.113 18.2451 0.078272 0.437242 -1.000568
2010-04-27 06:49:18 51°12.728 2°50.084 18.2706 0.078272 0.437249 -1.000568
2010-04-27 06:49:23 51°12.718 2°50.054 18.2627 0.078272 0.437242 -1.000568
2010-04-27 06:49:28 51°12.707 2°50.025 18.2536 0.078272 0.437242 -1.000568
2010-04-27 06:49:33 51°12.696 2°49.997 18.2575 0.078272 0.437242 -1.000568
2010-04-27 06:49:38 51°12.686 2°49.968 18.2722 0.078272 0.437249 -1.035392
2010-04-27 06:49:43 51°12.675 2°49.938 18.2837 0.078272 0.437249 -0.965744
2010-04-27 06:49:48 51°12.665 2°49.91 18.3043 0.078272 0.437256 -1.000568
2010-04-27 06:49:53 51°12.654 2°49.881 18.2939 0.078272 0.437249 -1.035392
2010-04-27 06:49:58 51°12.643 2°49.853 18.2815 0.078272 0.437263 -0.965744
2010-04-27 06:50:03 51°12.632 2°49.824 18.2572 0.078272 0.437263 -0.965744
2010-04-27 06:50:08 51°12.62 2°49.795 18.2458 0.078272 0.437256 -0.965744
2010-04-27 06:50:13 51°12.609 2°49.767 18.173 0.078272 0.437263 -1.035392
2010-04-27 06:50:18 51°12.598 2°49.738 18.2221 0.078272 0.437271 -1.000568
2010-04-27 06:50:23 51°12.588 2°49.709 18.2114 0.078272 0.437263 -1.000568
2010-04-27 06:50:28 51°12.578 2°49.679 18.263 0.078272 0.437263 -1.000568
2010-04-27 06:50:33 51°12.568 2°49.649 18.2626 0.078272 0.437271 -1.000568
2010-04-27 06:50:38 51°12.558 2°49.619 18.2614 0.078272 0.437271 -1.000568
2010-04-27 06:50:43 51°12.549 2°49.589 18.2483 0.078272 0.437263 -1.000568
2010-04-27 06:50:48 51°12.54 2°49.558 18.2451 0.078272 0.437278 -1.000568
2010-04-27 06:50:53 51°12.531 2°49.527 18.2749 0.078272 0.437271 -1.035392
2010-04-27 06:50:58 51°12.523 2°49.496 18.2729 0.078272 0.437271 -1.000568
2010-04-27 06:51:03 51°12.515 2°49.464 18.2918 0.078272 0.437271 -1.035392
2010-04-27 06:51:08 51°12.507 2°49.433 18.2966 0.078272 0.437271 -1.035392
2010-04-27 06:51:13 51°12.5 2°49.401 18.2478 0.078272 0.437263 -1.000568
2010-04-27 06:51:18 51°12.492 2°49.369 18.2638 0.078272 0.437285 -1.000568
2010-04-27 06:51:23 51°12.485 2°49.337 18.2279 0.078272 0.437278 -1.035392
2010-04-27 06:51:28 51°12.478 2°49.304 18.3008 0.078272 0.437285 -1.000568
2010-04-27 06:51:33 51°12.472 2°49.272 18.2627 0.078272 0.437292 -1.035392
2010-04-27 06:51:38 51°12.465 2°49.239 18.3107 0.078272 0.437292 -1.035392
2010-04-27 06:51:43 51°12.459 2°49.207 18.2797 0.078272 0.437285 -1.035392
2010-04-27 06:51:48 51°12.453 2°49.174 18.3018 0.078272 0.4373 -1.000568
2010-04-27 06:51:53 51°12.446 2°49.141 18.3217 0.078272 0.437292 -1.000568
2010-04-27 06:51:58 51°12.44 2°49.108 18.3155 0.078272 0.4373 -1.035392
2010-04-27 06:52:03 51°12.434 2°49.076 18.3016 0.078272 0.437307 -1.035392
2010-04-27 06:52:08 51°12.427 2°49.043 18.3123 0.078272 0.437307 -1.035392
2010-04-27 06:52:13 51°12.421 2°49.01 18.2765 0.078272 0.437307 -1.000568
2010-04-27 06:52:18 51°12.414 2°48.977 18.289 0.078272 0.437307 -1.035392
2010-04-27 06:52:23 51°12.407 2°48.945 18.2773 0.078272 0.437292 -1.000568
2010-04-27 06:52:28 51°12.4 2°48.912 18.2784 0.078272 0.437307 -1.035392
2010-04-27 06:52:33 51°12.393 2°48.879 18.2686 0.078272 0.437307 -1.000568
2010-04-27 06:52:38 51°12.387 2°48.847 18.2773 0.078272 0.437307 -1.000568
2010-04-27 06:52:43 51°12.38 2°48.814 18.3157 0.078272 0.437307 -1.000568
2010-04-27 06:52:48 51°12.374 2°48.782 18.2844 0.078272 0.4373 -1.000568
2010-04-27 06:52:53 51°12.367 2°48.749 18.3125 0.078272 0.437307 -1.000568
2010-04-27 06:52:58 51°12.361 2°48.717 18.3146 0.078272 0.437314 -1.000568
2010-04-27 06:53:03 51°12.354 2°48.684 18.3016 0.078272 0.437314 -1.000568
2010-04-27 06:53:08 51°12.348 2°48.652 18.3101 0.078272 0.437307 -1.000568
2010-04-27 06:53:13 51°12.341 2°48.62 18.3153 0.078272 0.437321 -1.000568
2010-04-27 06:53:18 51°12.334 2°48.587 18.2953 0.078272 0.437307 -1.035392
2010-04-27 06:53:23 51°12.327 2°48.555 18.2837 0.078272 0.437314 -1.000568
2010-04-27 06:53:28 51°12.321 2°48.522 18.3042 0.078272 0.437307 -1.035392
2010-04-27 06:53:33 51°12.314 2°48.49 18.3001 0.078272 0.437307 -1.035392
2010-04-27 06:53:38 51°12.307 2°48.458 18.3067 0.078272 0.437314 -1.000568
2010-04-27 06:53:43 51°12.3 2°48.426 18.2997 0.078272 0.437321 -1.035392
2010-04-27 06:53:48 51°12.294 2°48.394 18.3327 0.078272 0.437321 -1.035392
2010-04-27 06:53:53 51°12.287 2°48.362 18.3294 0.078272 0.437321 -1.000568
2010-04-27 06:53:58 51°12.28 2°48.33 18.3005 0.078272 0.437321 -1.035392
2010-04-27 06:54:03 51°12.273 2°48.297 18.3115 0.078272 0.437328 -1.035392
2010-04-27 06:54:08 51°12.267 2°48.265 18.2992 0.078272 0.437328 -1.035392
2010-04-27 06:54:13 51°12.26 2°48.233 18.2999 0.078272 0.437321 -1.000568
2010-04-27 06:54:18 51°12.253 2°48.2 18.2939 0.078272 0.437321 -0.965744
2010-04-27 06:54:23 51°12.246 2°48.168 18.3188 0.078272 0.437314 -1.000568
2010-04-27 06:54:28 51°12.24 2°48.136 18.3177 0.078272 0.437328 -1.000568
2010-04-27 06:54:33 51°12.233 2°48.103 18.3091 0.078272 0.437321 -1.035392
2010-04-27 06:54:38 51°12.226 2°48.071 18.3157 0.078272 0.437321 -1.035392
2010-04-27 06:54:43 51°12.219 2°48.039 18.3142 0.078272 0.437336 -0.965744
2010-04-27 06:54:48 51°12.213 2°48.007 18.311 0.078272 0.437328 -0.965744
2010-04-27 06:54:53 51°12.206 2°47.975 18.3311 0.078272 0.437336 -1.035392
2010-04-27 06:54:58 51°12.199 2°47.943 18.2941 0.078272 0.437336 -1.035392
2010-04-27 06:55:03 51°12.192 2°47.91 18.3232 0.078272 0.437336 -1.000568
2010-04-27 06:55:08 51°12.186 2°47.878 18.326 0.078272 0.437336 -1.000568
2010-04-27 06:55:13 51°12.179 2°47.846 18.3093 0.078272 0.437336 -1.035392
2010-04-27 06:55:18 51°12.172 2°47.813 18.3186 0.078272 0.437328 -1.035392
2010-04-27 06:55:23 51°12.166 2°47.781 18.3333 0.078272 0.437336 -1.000568
2010-04-27 06:55:28 51°12.159 2°47.749 18.2863 0.078272 0.437336 -1.035392
2010-04-27 06:55:33 51°12.153 2°47.717 18.2759 0.078272 0.437336 -1.035392
2010-04-27 06:55:38 51°12.146 2°47.685 18.3044 0.078272 0.437336 -1.035392
2010-04-27 06:55:43 51°12.14 2°47.652 18.3196 0.078272 0.437336 -1.000568
2010-04-27 06:55:48 51°12.134 2°47.619 18.2783 0.078272 0.437336 -1.000568
2010-04-27 06:55:53 51°12.128 2°47.587 18.321 0.078272 0.437336 -1.000568
2010-04-27 06:55:58 51°12.123 2°47.554 18.2999 0.078272 0.437336 -1.000568
2010-04-27 06:56:03 51°12.118 2°47.521 18.3341 0.078272 0.437343 -1.000568
2010-04-27 06:56:08 51°12.113 2°47.488 18.3577 0.078272 0.437343 -1.000568
2010-04-27 06:56:13 51°12.108 2°47.455 18.3774 0.078272 0.437343 -1.000568
2010-04-27 06:56:18 51°12.103 2°47.422 18.3351 0.078272 0.437343 -1.000568
2010-04-27 06:56:23 51°12.098 2°47.388 18.3614 0.078272 0.43735 -1.035392
2010-04-27 06:56:28 51°12.092 2°47.356 18.2747 0.078272 0.43735 -1.035392
2010-04-27 06:56:33 51°12.086 2°47.323 18.3517 0.078272 0.437343 -1.000568
2010-04-27 06:56:38 51°12.081 2°47.291 18.3099 0.078272 0.437343 -1.000568
2010-04-27 06:56:43 51°12.074 2°47.258 18.3524 0.078272 0.43735 -1.035392
2010-04-27 06:56:48 51°12.068 2°47.225 18.3358 0.078272 0.437343 -1.000568
2010-04-27 06:56:53 51°12.063 2°47.193 18.3077 0.078272 0.43735 -1.000568
2010-04-27 06:56:58 51°12.056 2°47.16 18.3383 0.078272 0.43735 -1.035392
2010-04-27 06:57:03 51°12.05 2°47.127 18.3187 0.078272 0.43735 -1.035392
2010-04-27 06:57:08 51°12.044 2°47.095 18.3365 0.078272 0.43735 -1.035392
2010-04-27 06:57:13 51°12.038 2°47.062 18.3277 0.078272 0.43735 -1.000568
2010-04-27 06:57:18 51°12.032 2°47.029 18.3445 0.078272 0.43735 -1.000568
2010-04-27 06:57:23 51°12.026 2°46.997 18.3419 0.078272 0.43735 -1.000568
2010-04-27 06:57:28 51°12.02 2°46.964 18.3326 0.078272 0.437357 -1.000568
2010-04-27 06:57:33 51°12.014 2°46.931 18.3307 0.078272 0.437357 -1.000568
2010-04-27 06:57:38 51°12.008 2°46.898 18.3412 0.078272 0.437357 -1.000568
2010-04-27 06:57:43 51°12.002 2°46.865 18.3309 0.078272 0.43735 -1.000568
2010-04-27 06:57:48 51°11.997 2°46.833 18.3348 0.078272 0.437357 -1.000568
2010-04-27 06:57:53 51°11.991 2°46.8 18.326 0.078272 0.43735 -1.000568
2010-04-27 06:57:58 51°11.985 2°46.767 18.3416 0.078272 0.43735 -1.000568
2010-04-27 06:58:03 51°11.979 2°46.734 18.3177 0.078272 0.437357 -1.000568
2010-04-27 06:58:08 51°11.973 2°46.701 18.3394 0.078272 0.437357 -1.000568
2010-04-27 06:58:13 51°11.967 2°46.669 18.3483 0.078272 0.43735 -1.000568
2010-04-27 06:58:18 51°11.961 2°46.636 18.3196 0.078272 0.43735 -1.000568
2010-04-27 06:58:23 51°11.956 2°46.603 18.3296 0.078272 0.437357 -0.965744
2010-04-27 06:58:28 51°11.95 2°46.57 18.3521 0.078272 0.437357 -1.000568
2010-04-27 06:58:33 51°11.945 2°46.537 18.3493 0.078272 0.43735 -1.035392
2010-04-27 06:58:38 51°11.939 2°46.504 18.3083 0.078272 0.43735 -1.035392
2010-04-27 06:58:43 51°11.934 2°46.471 18.3307 0.078272 0.437357 -1.000568
2010-04-27 06:58:48 51°11.929 2°46.437 18.3485 0.078272 0.437357 -1.000568
2010-04-27 06:58:53 51°11.924 2°46.404 18.3299 0.078272 0.437357 -1.035392
2010-04-27 06:58:58 51°11.919 2°46.37 18.3535 0.078272 0.43735 -1.035392
2010-04-27 06:59:03 51°11.914 2°46.337 18.332 0.078272 0.43735 -1.035392
2010-04-27 06:59:08 51°11.909 2°46.304 18.3688 0.078272 0.43735 -1.000568
2010-04-27 06:59:13 51°11.904 2°46.271 18.3377 0.078272 0.437357 -1.000568
2010-04-27 06:59:18 51°11.899 2°46.237 18.3593 0.078272 0.437365 -1.000568
2010-04-27 06:59:23 51°11.894 2°46.204 18.3599 0.078272 0.437357 -1.035392
2010-04-27 06:59:28 51°11.889 2°46.171 18.3458 0.078272 0.437365 -0.965744
2010-04-27 06:59:33 51°11.884 2°46.137 18.3594 0.078272 0.437365 -1.000568
2010-04-27 06:59:38 51°11.879 2°46.104 18.3523 0.078272 0.437365 -1.000568
2010-04-27 06:59:43 51°11.874 2°46.071 18.3709 0.078272 0.437365 -1.000568
2010-04-27 06:59:48 51°11.869 2°46.037 18.3175 0.078272 0.43735 -1.035392
2010-04-27 06:59:53 51°11.864 2°46.004 18.3564 0.078272 0.437357 -1.035392
2010-04-27 06:59:58 51°11.859 2°45.971 18.3365 0.078272 0.43735 -1.000568
2010-04-27 07:00:03 51°11.854 2°45.938 18.365 0.078272 0.437365 -1.000568
2010-04-27 07:00:08 51°11.85 2°45.905 18.3543 0.078272 0.437365 -1.000568
2010-04-27 07:00:13 51°11.845 2°45.871 18.3475 0.078272 0.437357 -1.035392
2010-04-27 07:00:18 51°11.84 2°45.838 18.3382 0.078272 0.43735 -1.035392
2010-04-27 07:00:23 51°11.835 2°45.805 18.3524 0.078272 0.437357 -1.000568
2010-04-27 07:00:28 51°11.831 2°45.771 18.3605 0.078272 0.437357 -0.965744
2010-04-27 07:00:33 51°11.826 2°45.738 18.3531 0.078272 0.437357 -0.965744
2010-04-27 07:00:38 51°11.821 2°45.705 18.3669 0.078272 0.437365 -1.000568
2010-04-27 07:00:43 51°11.817 2°45.671 18.3661 0.078272 0.437357 -1.000568
2010-04-27 07:00:48 51°11.812 2°45.639 18.344 0.078272 0.437365 -1.000568
2010-04-27 07:00:53 51°11.808 2°45.605 18.3481 0.078272 0.437357 -1.035392
2010-04-27 07:00:58 51°11.803 2°45.572 18.3921 0.078272 0.43735 -1.000568
2010-04-27 07:01:03 51°11.799 2°45.539 18.3479 0.078272 0.437365 -1.000568
2010-04-27 07:01:08 51°11.794 2°45.506 18.3678 0.078272 0.437365 -1.000568
2010-04-27 07:01:13 51°11.789 2°45.473 18.3701 0.078272 0.437365 -1.000568
2010-04-27 07:01:18 51°11.784 2°45.44 18.3573 0.078272 0.437365 -1.000568
2010-04-27 07:01:23 51°11.78 2°45.407 18.3386 0.078272 0.437372 -1.000568
2010-04-27 07:01:28 51°11.775 2°45.375 18.3626 0.078272 0.437372 -1.000568
2010-04-27 07:01:33 51°11.771 2°45.344 18.326 0.078272 0.437372 -1.035392
2010-04-27 07:01:38 51°11.767 2°45.314 18.3306 0.078272 0.437372 -1.035392
2010-04-27 07:01:43 51°11.763 2°45.286 18.3398 0.078272 0.437379 -1.035392
2010-04-27 07:01:48 51°11.759 2°45.259 18.3896 0.078272 0.437372 -1.000568
2010-04-27 07:01:53 51°11.755 2°45.234 18.4184 0.078272 0.437372 -0.965744
2010-04-27 07:01:58 51°11.752 2°45.209 18.4089 0.078272 0.437379 -1.000568
2010-04-27 07:02:03 51°11.748 2°45.186 18.4252 0.078272 0.437379 -1.035392
2010-04-27 07:02:08 51°11.745 2°45.165 18.4193 0.078272 0.437379 -1.035392
2010-04-27 07:02:13 51°11.741 2°45.144 18.4323 0.078272 0.437386 -1.035392
2010-04-27 07:02:18 51°11.738 2°45.124 18.4137 0.078272 0.437379 -1.000568
2010-04-27 07:02:23 51°11.734 2°45.105 18.4097 0.078272 0.437386 -1.000568
2010-04-27 07:02:28 51°11.731 2°45.087 18.4123 0.078272 0.437386 -1.000568
2010-04-27 07:02:33 51°11.728 2°45.069 18.3976 0.078272 0.437386 -1.000568
2010-04-27 07:02:38 51°11.725 2°45.052 18.4019 0.078272 0.437379 -1.000568
2010-04-27 07:02:43 51°11.723 2°45.036 18.4153 0.078272 0.437386 -1.000568
2010-04-27 07:02:48 51°11.72 2°45.02 18.4074 0.078272 0.437379 -1.000568
2010-04-27 07:02:53 51°11.718 2°45.005 18.4119 0.078272 0.437372 -1.000568
2010-04-27 07:02:58 51°11.716 2°44.99 18.4025 0.078272 0.437379 -1.000568
2010-04-27 07:03:03 51°11.715 2°44.976 18.4069 0.078272 0.437379 -1.035392
2010-04-27 07:03:08 51°11.714 2°44.961 18.4019 0.078272 0.437379 -1.035392
2010-04-27 07:03:13 51°11.712 2°44.948 18.3958 0.078272 0.437372 -1.035392
2010-04-27 07:03:18 51°11.712 2°44.934 18.4291 0.078272 0.437379 -1.000568
2010-04-27 07:03:23 51°11.712 2°44.921 18.4126 0.078272 0.437386 -1.000568
2010-04-27 07:03:28 51°11.711 2°44.908 18.4215 0.078272 0.437379 -1.035392
2010-04-27 07:03:33 51°11.711 2°44.895 18.4238 0.078272 0.437386 -1.000568
2010-04-27 07:03:38 51°11.711 2°44.883 18.4219 0.078272 0.437386 -1.000568
2010-04-27 07:03:43 51°11.711 2°44.871 18.4135 0.078272 0.437386 -1.035392
2010-04-27 07:03:48 51°11.712 2°44.859 18.4309 0.078272 0.437386 -1.000568
2010-04-27 07:03:53 51°11.712 2°44.848 18.4229 0.078272 0.437379 -1.035392
2010-04-27 07:03:58 51°11.713 2°44.837 18.4233 0.078272 0.437386 -1.000568
2010-04-27 07:04:03 51°11.713 2°44.826 18.4238 0.078272 0.437394 -1.000568
2010-04-27 07:04:08 51°11.714 2°44.815 18.4229 0.078272 0.437394 -1.000568
2010-04-27 07:04:13 51°11.714 2°44.805 18.424 0.078272 0.437386 -1.000568
2010-04-27 07:04:18 51°11.715 2°44.794 18.4461 0.078272 0.437394 -1.000568
2010-04-27 07:04:23 51°11.715 2°44.784 18.4451 0.078272 0.437386 -1.000568
2010-04-27 07:04:28 51°11.716 2°44.774 18.428 0.078272 0.437394 -1.000568
2010-04-27 07:04:33 51°11.716 2°44.764 18.4341 0.078272 0.437394 -1.035392
2010-04-27 07:04:38 51°11.717 2°44.754 18.4496 0.078272 0.437394 -1.035392
2010-04-27 07:04:43 51°11.717 2°44.744 18.4311 0.078272 0.437386 -1.000568
2010-04-27 07:04:48 51°11.717 2°44.735 18.4374 0.078272 0.437386 -1.000568
2010-04-27 07:04:53 51°11.718 2°44.725 18.4406 0.078272 0.437386 -1.070216
2010-04-27 07:04:58 51°11.718 2°44.716 18.436 0.078272 0.437386 -1.000568
2010-04-27 07:05:03 51°11.718 2°44.706 18.4398 0.078272 0.437379 -1.000568
2010-04-27 07:05:08 51°11.718 2°44.697 18.4473 0.078272 0.437379 -1.000568
2010-04-27 07:05:13 51°11.718 2°44.688 18.4496 0.078272 0.437386 -1.000568
2010-04-27 07:05:18 51°11.718 2°44.679 18.4304 0.078272 0.437386 -1.035392
2010-04-27 07:05:23 51°11.718 2°44.67 18.4211 0.078272 0.437394 -1.035392
2010-04-27 07:05:28 51°11.718 2°44.661 18.4414 0.078272 0.437386 -1.035392
2010-04-27 07:05:33 51°11.718 2°44.653 18.4436 0.078272 0.437386 -1.000568
2010-04-27 07:05:38 51°11.718 2°44.644 18.4392 0.078272 0.437386 -1.000568
2010-04-27 07:05:43 51°11.717 2°44.635 18.4496 0.078272 0.437386 -1.000568
2010-04-27 07:05:48 51°11.717 2°44.627 18.4441 0.078272 0.437394 -1.000568
2010-04-27 07:05:53 51°11.717 2°44.618 18.4428 0.078272 0.437394 -1.035392
2010-04-27 07:05:58 51°11.716 2°44.61 18.4331 0.078272 0.437394 -1.035392
2010-04-27 07:06:03 51°11.716 2°44.601 18.4374 0.078272 0.437394 -1.035392
2010-04-27 07:06:08 51°11.715 2°44.593 18.4398 0.078272 0.437386 -0.965744
2010-04-27 07:06:13 51°11.715 2°44.585 18.4531 0.078272 0.437394 -1.000568
2010-04-27 07:06:18 51°11.714 2°44.576 18.4361 0.078272 0.437386 -1.000568
2010-04-27 07:06:23 51°11.714 2°44.568 18.4473 0.078272 0.437386 -1.035392
2010-04-27 07:06:28 51°11.713 2°44.56 18.4389 0.078272 0.437394 -0.965744
2010-04-27 07:06:33 51°11.713 2°44.551 18.4535 0.078272 0.437394 -1.000568
2010-04-27 07:06:38 51°11.712 2°44.543 18.4377 0.078272 0.437394 -1.000568
2010-04-27 07:06:43 51°11.712 2°44.535 18.4248 0.078272 0.437394 -1.035392
2010-04-27 07:06:48 51°11.711 2°44.527 18.4539 0.078272 0.437394 -0.965744
2010-04-27 07:06:53 51°11.711 2°44.519 18.4478 0.078272 0.437401 -1.000568
2010-04-27 07:06:58 51°11.71 2°44.511 18.4644 0.078272 0.437394 -1.035392
2010-04-27 07:07:03 51°11.71 2°44.503 18.4445 0.078272 0.437394 -1.000568
2010-04-27 07:07:08 51°11.709 2°44.495 18.454 0.078272 0.437394 -1.000568
2010-04-27 07:07:13 51°11.709 2°44.487 18.4417 0.078272 0.437401 -1.000568
2010-04-27 07:07:18 51°11.709 2°44.479 18.4464 0.078272 0.437401 -1.000568
2010-04-27 07:07:23 51°11.708 2°44.471 18.4508 0.078272 0.437401 -1.000568
2010-04-27 07:07:28 51°11.708 2°44.463 18.4496 0.078272 0.437401 -1.000568
2010-04-27 07:07:33 51°11.707 2°44.456 18.463 0.078272 0.437401 -1.000568
2010-04-27 07:07:38 51°11.707 2°44.448 18.4612 0.078272 0.437401 -1.000568
2010-04-27 07:07:43 51°11.706 2°44.44 18.4573 0.078272 0.437408 -1.000568
2010-04-27 07:07:48 51°11.706 2°44.432 18.4651 0.078272 0.437408 -0.965744
2010-04-27 07:07:53 51°11.706 2°44.425 18.4505 0.078272 0.437401 -1.035392
2010-04-27 07:07:58 51°11.705 2°44.417 18.4531 0.078272 0.437408 -1.000568
2010-04-27 07:08:03 51°11.705 2°44.409 18.4393 0.078272 0.437408 -1.000568
2010-04-27 07:08:08 51°11.704 2°44.402 18.4623 0.078272 0.437408 -1.000568
2010-04-27 07:08:13 51°11.704 2°44.394 18.4622 0.078272 0.437401 -1.000568
2010-04-27 07:08:18 51°11.703 2°44.386 18.4566 0.078272 0.437408 -1.000568
2010-04-27 07:08:23 51°11.703 2°44.379 18.4756 0.078272 0.437415 -1.000568
2010-04-27 07:08:28 51°11.703 2°44.371 18.4643 0.078272 0.437408 -1.000568
2010-04-27 07:08:33 51°11.702 2°44.363 18.467 0.078272 0.437415 -1.000568
2010-04-27 07:08:38 51°11.702 2°44.355 18.4551 0.078272 0.437415 -1.000568
2010-04-27 07:08:43 51°11.702 2°44.348 18.4647 0.078272 0.437415 -1.000568
2010-04-27 07:08:48 51°11.701 2°44.34 18.4594 0.078272 0.437415 -1.000568
2010-04-27 07:08:53 51°11.701 2°44.333 18.464 0.078272 0.437415 -1.000568
2010-04-27 07:08:58 51°11.701 2°44.326 18.4705 0.078272 0.437415 -1.035392
2010-04-27 07:09:03 51°11.7 2°44.318 18.4786 0.078272 0.437415 -1.000568
2010-04-27 07:09:08 51°11.7 2°44.31 18.4561 0.078272 0.437415 -1.000568
2010-04-27 07:09:13 51°11.7 2°44.303 18.4817 0.078272 0.437415 -1.000568
2010-04-27 07:09:18 51°11.699 2°44.295 18.4581 0.078272 0.437408 -1.000568
2010-04-27 07:09:23 51°11.699 2°44.288 18.4688 0.078272 0.437408 -1.000568
2010-04-27 07:09:28 51°11.699 2°44.28 18.4644 0.078272 0.437415 -1.000568
2010-04-27 07:09:33 51°11.698 2°44.273 18.4664 0.078272 0.437415 -1.000568
2010-04-27 07:09:38 51°11.698 2°44.265 18.4659 0.078272 0.437415 -1.035392
2010-04-27 07:09:43 51°11.697 2°44.258 18.4752 0.078272 0.437415 -1.000568
2010-04-27 07:09:48 51°11.697 2°44.25 18.4863 0.078272 0.437415 -1.000568
2010-04-27 07:09:53 51°11.697 2°44.243 18.454 0.078272 0.437415 -1.000568
2010-04-27 07:09:58 51°11.697 2°44.236 18.489 0.078272 0.437423 -1.000568
2010-04-27 07:10:03 51°11.696 2°44.229 18.4624 0.078272 0.437408 -1.000568
2010-04-27 07:10:08 51°11.696 2°44.221 18.4588 0.078272 0.437408 -1.000568
2010-04-27 07:10:13 51°11.696 2°44.214 18.479 0.078272 0.437415 -1.000568
2010-04-27 07:10:18 51°11.695 2°44.207 18.4654 0.078272 0.437423 -1.035392
2010-04-27 07:10:23 51°11.695 2°44.199 18.4634 0.078272 0.437423 -1.000568
2010-04-27 07:10:28 51°11.694 2°44.192 18.4713 0.078272 0.437423 -1.000568
2010-04-27 07:10:33 51°11.694 2°44.184 18.4623 0.078272 0.437423 -1.000568
2010-04-27 07:10:38 51°11.694 2°44.177 18.4749 0.078272 0.437423 -1.000568
2010-04-27 07:10:43 51°11.693 2°44.17 18.4759 0.078272 0.437423 -1.000568
2010-04-27 07:10:48 51°11.693 2°44.162 18.4598 0.078272 0.437423 -1.000568
2010-04-27 07:10:53 51°11.692 2°44.155 18.4737 0.078272 0.437423 -1.035392
2010-04-27 07:10:58 51°11.692 2°44.148 18.4648 0.078272 0.437423 -1.000568
2010-04-27 07:11:03 51°11.692 2°44.141 18.4605 0.078272 0.437423 -1.000568
2010-04-27 07:11:08 51°11.691 2°44.134 18.4754 0.078272 0.437423 -1.000568
2010-04-27 07:11:13 51°11.691 2°44.127 18.4804 0.078272 0.437423 -1.000568
2010-04-27 07:11:18 51°11.691 2°44.12 18.4789 0.078272 0.437423 -1.000568
2010-04-27 07:11:23 51°11.69 2°44.113 18.4822 0.078272 0.437423 -1.000568
2010-04-27 07:11:28 51°11.69 2°44.106 18.4815 0.078272 0.43743 -1.000568
2010-04-27 07:11:33 51°11.689 2°44.099 18.4997 0.078272 0.43743 -1.000568
2010-04-27 07:11:38 51°11.689 2°44.092 18.4533 0.078272 0.43743 -1.035392
2010-04-27 07:11:43 51°11.688 2°44.085 18.4866 0.078272 0.43743 -1.035392
2010-04-27 07:11:48 51°11.688 2°44.079 18.4787 0.078272 0.43743 -1.000568
2010-04-27 07:11:53 51°11.687 2°44.072 18.464 0.078272 0.437423 -1.035392
2010-04-27 07:11:58 51°11.687 2°44.065 18.4749 0.078272 0.43743 -1.035392
2010-04-27 07:12:03 51°11.686 2°44.058 18.4836 0.078272 0.437437 -1.000568
2010-04-27 07:12:08 51°11.686 2°44.052 18.4776 0.078272 0.437437 -1.000568
2010-04-27 07:12:13 51°11.685 2°44.045 18.4791 0.078272 0.43743 -1.035392
2010-04-27 07:12:18 51°11.684 2°44.039 18.4876 0.078272 0.437437 -1.000568
2010-04-27 07:12:23 51°11.684 2°44.032 18.4759 0.078272 0.437437 -1.000568
2010-04-27 07:12:28 51°11.683 2°44.025 18.4814 0.078272 0.437437 -1.000568
2010-04-27 07:12:33 51°11.683 2°44.019 18.4771 0.078272 0.43743 -1.035392
2010-04-27 07:12:38 51°11.682 2°44.013 18.4672 0.078272 0.43743 -1.035392
2010-04-27 07:12:43 51°11.682 2°44.006 18.4468 0.078272 0.437437 -1.000568
2010-04-27 07:12:48 51°11.681 2°44 18.4816 0.078272 0.43743 -0.965744
2010-04-27 07:12:53 51°11.681 2°43.993 18.4762 0.078272 0.437444 -1.035392
2010-04-27 07:12:58 51°11.68 2°43.986 18.4859 0.078272 0.43743 -1.035392
2010-04-27 07:13:03 51°11.68 2°43.98 18.4552 0.078272 0.437444 -1.000568
2010-04-27 07:13:08 51°11.679 2°43.974 18.4632 0.078272 0.437444 -1.000568
2010-04-27 07:13:13 51°11.679 2°43.968 18.4868 0.078272 0.437437 -1.000568
2010-04-27 07:13:18 51°11.679 2°43.961 18.4832 0.078272 0.437437 -1.000568
2010-04-27 07:13:23 51°11.678 2°43.955 18.4802 0.078272 0.437437 -1.000568
2010-04-27 07:13:28 51°11.678 2°43.949 18.4665 0.078272 0.437444 -0.965744
2010-04-27 07:13:33 51°11.677 2°43.942 18.4939 0.078272 0.437452 -1.000568
2010-04-27 07:13:38 51°11.677 2°43.936 18.4768 0.078272 0.437452 -1.000568
2010-04-27 07:13:43 51°11.676 2°43.93 18.4799 0.078272 0.437444 -0.965744
2010-04-27 07:13:48 51°11.676 2°43.923 18.4862 0.078272 0.437444 -1.000568
2010-04-27 07:13:53 51°11.675 2°43.917 18.4707 0.078272 0.437437 -1.000568
2010-04-27 07:13:58 51°11.675 2°43.911 18.5145 0.078272 0.437444 -1.035392
2010-04-27 07:14:03 51°11.674 2°43.905 18.4756 0.078272 0.437444 -1.000568
2010-04-27 07:14:08 51°11.674 2°43.899 18.5092 0.078272 0.437444 -1.000568
2010-04-27 07:14:13 51°11.673 2°43.893 18.4857 0.078272 0.437452 -1.000568
2010-04-27 07:14:18 51°11.673 2°43.886 18.489 0.078272 0.437452 -1.000568
2010-04-27 07:14:23 51°11.673 2°43.88 18.4875 0.078272 0.437444 -1.035392
2010-04-27 07:14:28 51°11.672 2°43.874 18.482 0.078272 0.437444 -1.000568
2010-04-27 07:14:33 51°11.672 2°43.868 18.4776 0.078272 0.437444 -1.000568
2010-04-27 07:14:38 51°11.671 2°43.862 18.4855 0.078272 0.437444 -1.000568
2010-04-27 07:14:43 51°11.671 2°43.856 18.4946 0.078272 0.437444 -1.000568
2010-04-27 07:14:48 51°11.67 2°43.85 18.4904 0.078272 0.437444 -1.000568
2010-04-27 07:14:53 51°11.67 2°43.844 18.4922 0.078272 0.437444 -1.000568
2010-04-27 07:14:58 51°11.67 2°43.838 18.4959 0.078272 0.437452 -1.035392